Laatste waarneming: 02:09
Temperatuur:10,7°C
Dauwpunt:8,6°C
Rel. vocht:87,0%
Natte-bol:10,0°C
Wind (gem. 10 min.):3,3 m/s
Wind (max. 10 min.):1.7E+308 m/s
Windrichting:12°
Neerslagsom:0,0 mm
Neerslagintensiteit:0,0 mm/u
Luchtdruk:1013,1 hPa
Straling:0,0 W/m2
 
Maximumtemp.:11,6°C (00:00)
Minimumtemp.:10,7°C (02:09)
Hoogste windstoot:- m/s (00:34)


Bekijk de verwachting.

Bekijk de grafieken.
Bekijk het weekoverzicht.
Bekijk het maandoverzicht.
Bekijk het jaaroverzicht.
Dagtabel
Tijd Temp. Dauwp. Natte-bol Rel. Hum. Windsnelh. Windricht. Windstoot Neerslag Straling Luchtdruk
 
02:09 10,7 8,6 10,0 87,0 3,3 12 - 0,0 0 1.013,1
02:08 10,7 8,6 10,0 87,0 3,4 34 - 0,0 0 1.013,1
02:07 10,7 8,6 10,0 87,0 3,6 43 - 0,0 0 1.013,1
02:06 10,7 8,6 10,0 87,0 3,8 48 - 0,0 0 1.013,1
02:05 10,8 8,7 10,0 87,0 4,2 27 - 0,0 0 1.013,1
02:04 10,8 8,7 10,1 87,0 4,2 4 - 0,0 0 1.013,1
02:03 10,8 8,7 10,1 87,0 3,6 32 - 0,0 0 1.013,1
02:02 10,7 8,7 10,0 87,0 2,7 39 - 0,0 0 1.013,1
02:01 10,7 8,6 10,0 87,0 2,0 350 - 0,0 0 1.013,2
02:00 10,7 8,6 10,0 87,0 2,2 15 - 0,0 0 1.013,2
 
01:59 10,8 8,7 10,0 87,0 2,8 38 - 0,0 0 1.013,2
01:58 10,8 8,7 10,0 87,0 3,3 49 - 0,0 0 1.013,2
01:57 10,8 8,7 10,1 87,0 3,6 33 - 0,0 0 1.013,2
01:56 10,8 8,7 10,1 87,0 3,9 18 - 0,0 0 1.013,2
01:55 10,8 8,7 10,1 87,0 3,7 45 - 0,0 0 1.013,2
01:54 10,8 8,7 10,1 87,0 3,4 59 - 0,0 0 1.013,2
01:53 10,8 8,7 10,1 87,0 3,0 12 - 0,0 0 1.013,2
01:52 10,8 8,7 10,1 87,0 3,0 20 - 0,0 0 1.013,2
01:51 10,8 8,7 10,1 87,0 3,4 47 - 0,0 0 1.013,2
01:50 10,8 8,7 10,1 87,0 3,9 9 - 0,0 0 1.013,2
01:49 10,8 8,7 10,1 87,0 3,6 39 - 0,0 0 1.013,2
01:48 10,8 8,7 10,1 87,0 2,9 30 - 0,0 0 1.013,2
01:47 10,8 8,7 10,1 87,0 2,9 41 - 0,0 0 1.013,2
01:46 10,8 8,7 10,1 87,0 3,3 37 - 0,0 0 1.013,2
01:45 10,8 8,7 10,1 87,0 3,4 41 - 0,0 0 1.013,2
01:44 10,8 8,7 10,1 87,0 2,9 39 - 0,0 0 1.013,2
01:43 10,8 8,7 10,1 87,0 3,1 355 - 0,0 0 1.013,2
01:42 10,8 8,7 10,1 87,0 3,5 3 - 0,0 0 1.013,2
01:41 10,8 8,7 10,0 87,0 3,1 355 - 0,0 0 1.013,3
01:40 10,8 8,7 10,0 87,0 2,5 39 - 0,0 0 1.013,3
01:39 10,8 8,7 10,1 87,0 2,7 23 - 0,0 0 1.013,3
01:38 10,8 8,7 10,0 87,0 3,1 8 - 0,0 0 1.013,3
01:37 10,8 8,7 10,1 87,0 3,2 54 - 0,0 0 1.013,3
01:36 10,8 8,7 10,1 87,0 2,9 40 - 0,0 0 1.013,3
01:35 10,8 8,7 10,1 87,0 2,6 39 - 0,0 0 1.013,3
01:34 10,8 8,7 10,1 87,0 2,6 45 - 0,0 0 1.013,3
01:33 10,8 8,7 10,0 87,0 2,8 5 - 0,0 0 1.013,3
01:32 10,8 8,7 10,0 87,0 3,2 7 - 0,0 0 1.013,3
01:31 10,8 8,7 10,0 87,0 3,7 36 - 0,0 0 1.013,3
01:30 10,8 8,7 10,0 87,0 3,9 47 - 0,0 0 1.013,3
01:29 10,8 8,7 10,1 87,0 3,9 69 - 0,0 0 1.013,3
01:28 10,8 8,7 10,1 87,0 3,7 54 - 0,0 0 1.013,3
01:27 10,8 8,7 10,1 87,0 3,6 41 - 0,0 0 1.013,3
01:26 10,8 8,7 10,1 87,0 3,3 64 - 0,0 0 1.013,3
01:25 10,8 8,7 10,1 87,0 2,8 40 - 0,0 0 1.013,3
01:24 10,8 8,7 10,1 87,0 2,8 30 - 0,0 0 1.013,3
01:23 10,8 8,7 10,1 87,0 3,0 25 - 0,0 0 1.013,2
01:22 10,8 8,7 10,1 87,0 3,5 24 - 0,0 0 1.013,3
01:21 10,8 8,7 10,1 87,0 3,4 28 - 0,0 0 1.013,3
01:20 10,8 8,7 10,1 87,0 3,0 54 - 0,0 0 1.013,3
01:19 10,8 8,7 10,1 87,0 2,7 359 - 0,0 0 1.013,4
01:18 10,8 8,7 10,1 87,0 3,0 32 - 0,0 0 1.013,3
01:17 10,8 8,7 10,1 87,0 3,4 58 - 0,0 0 1.013,3
01:16 10,8 8,7 10,1 87,0 3,1 34 - 0,0 0 1.013,4
01:15 10,8 8,5 10,0 86,1 2,9 18 - 0,0 0 1.013,4
01:14 10,8 8,5 10,0 86,0 3,5 26 - 0,0 0 1.013,4
01:13 10,8 8,6 10,0 86,0 4,3 45 - 0,0 0 1.013,4
01:12 10,8 8,5 10,0 86,0 4,3 24 - 0,0 0 1.013,5
01:11 10,8 8,6 10,0 86,0 4,0 39 - 0,0 0 1.013,5
01:10 10,8 8,6 10,0 86,0 3,8 39 - 0,0 0 1.013,5
01:09 10,8 8,6 10,0 86,0 3,8 29 - 0,0 0 1.013,5
01:08 10,8 8,6 10,0 86,0 3,4 36 - 0,0 0 1.013,5
01:07 10,8 8,6 10,0 86,0 3,3 42 - 0,0 0 1.013,5
01:06 10,8 8,6 10,0 86,0 3,3 64 - 0,0 0 1.013,4
01:05 10,8 8,6 10,0 86,0 3,9 11 - 0,0 0 1.013,4
01:04 10,8 8,6 10,0 86,0 4,0 39 - 0,0 0 1.013,4
01:03 10,8 8,6 10,0 86,0 3,9 24 - 0,0 0 1.013,4
01:02 10,8 8,6 10,0 86,0 3,8 32 - 0,0 0 1.013,4
01:01 10,8 8,6 10,0 86,0 3,7 27 - 0,0 0 1.013,4
01:00 10,8 8,6 10,0 86,0 3,6 48 - 0,0 0 1.013,5
 
00:59 10,9 8,6 10,0 86,0 3,2 68 - 0,0 0 1.013,5
00:58 10,9 8,6 10,0 86,0 2,6 60 - 0,0 0 1.013,5
00:57 10,8 8,6 10,0 86,0 2,3 49 - 0,0 0 1.013,5
00:56 10,8 8,6 10,0 86,0 2,9 9 - 0,0 0 1.013,5
00:55 10,8 8,6 10,0 86,0 3,0 36 - 0,0 0 1.013,5
00:54 10,8 8,6 10,0 86,0 3,0 41 - 0,0 0 1.013,5
00:53 10,9 8,6 10,1 86,0 3,4 72 - 0,0 0 1.013,5
00:52 10,9 8,6 10,1 86,0 3,9 30 - 0,0 0 1.013,5
00:51 10,9 8,6 10,1 86,0 4,3 59 - 0,0 0 1.013,5
00:50 10,9 8,7 10,1 86,0 4,3 49 - 0,0 0 1.013,5
00:49 10,9 8,7 10,1 86,0 4,3 24 - 0,0 0 1.013,5
00:48 10,9 8,7 10,1 86,0 4,1 50 - 0,0 0 1.013,5
00:47 11,0 8,7 10,1 86,0 4,3 45 - 0,0 0 1.013,5
00:46 11,0 8,7 10,2 86,0 4,2 44 - 0,0 0 1.013,5
00:45 11,0 8,7 10,1 86,0 4,1 27 - 0,0 0 1.013,5
00:44 11,0 8,7 10,2 86,0 4,3 32 - 0,0 0 1.013,5
00:43 11,0 8,7 10,2 86,0 4,1 14 - 0,0 0 1.013,5
00:42 11,0 8,8 10,2 86,0 3,5 67 - 0,0 0 1.013,5
00:41 11,0 8,8 10,2 86,0 3,0 12 - 0,0 0 1.013,6
00:40 11,0 8,8 10,2 86,0 2,9 33 - 0,0 0 1.013,6
00:39 11,0 8,8 10,2 86,0 3,1 43 - 0,0 0 1.013,5
00:38 11,0 8,8 10,2 86,0 3,3 55 - 0,0 0 1.013,5
00:37 11,0 8,8 10,2 86,0 3,5 47 - 0,0 0 1.013,5
00:36 11,1 8,8 10,2 86,0 3,8 24 - 0,0 0 1.013,6
00:35 11,1 8,8 10,3 86,0 4,3 28 - 0,0 0 1.013,6
00:34 11,1 8,8 10,3 86,0 4,6 22 - 0,0 0 1.013,6
00:33 11,1 8,9 10,3 86,0 4,5 27 - 0,0 0 1.013,6
00:32 11,2 8,9 10,3 86,0 3,9 49 - 0,0 0 1.013,6
00:31 11,2 8,9 10,4 86,0 3,7 40 - 0,0 0 1.013,6
00:30 11,2 8,9 10,4 86,0 4,0 53 - 0,0 0 1.013,6
00:29 11,2 8,9 10,4 86,0 4,2 47 - 0,0 0 1.013,5
00:28 11,2 8,9 10,4 86,0 4,1 33 - 0,0 0 1.013,6
00:27 11,2 9,0 10,4 86,0 3,8 68 - 0,0 0 1.013,6
00:26 11,2 9,0 10,4 86,0 3,5 36 - 0,0 0 1.013,6
00:25 11,3 9,0 10,5 86,0 3,9 12 - 0,0 0 1.013,6
00:24 11,3 9,0 10,5 86,0 4,2 32 - 0,0 0 1.013,6
00:23 11,3 9,0 10,5 86,0 4,1 42 - 0,0 0 1.013,7
00:22 11,3 9,0 10,5 86,0 3,8 2 - 0,0 0 1.013,8
00:21 11,3 9,1 10,5 86,0 4,0 50 - 0,0 0 1.013,8
00:20 11,4 9,1 10,6 86,0 4,2 40 - 0,0 0 1.013,8
00:19 11,4 9,1 10,6 86,0 4,0 39 - 0,0 0 1.013,8
00:18 11,4 9,1 10,6 86,0 3,7 33 - 0,0 0 1.013,7
00:17 11,4 9,2 10,6 86,0 3,9 62 - 0,0 0 1.013,8
00:16 11,4 9,2 10,6 86,0 3,6 30 - 0,0 0 1.013,7
00:15 11,5 9,2 10,7 86,0 3,4 10 - 0,0 0 1.013,7
00:14 11,5 9,2 10,7 86,0 3,1 345 - 0,0 0 1.013,8
00:13 11,5 9,2 10,7 86,0 3,1 28 - 0,0 0 1.013,8
00:12 11,5 9,2 10,7 86,0 3,2 36 - 0,0 0 1.013,8
00:11 11,5 9,2 10,7 86,0 2,8 26 - 0,0 0 1.013,8
00:10 11,5 9,3 10,7 86,0 2,8 345 - 0,0 0 1.013,8
00:09 11,6 9,3 10,8 86,0 3,0 48 - 0,0 0 1.013,8
00:08 11,6 9,3 10,8 86,0 3,6 355 - 0,0 0 1.013,9
00:07 11,6 9,3 10,8 86,0 4,0 17 - 0,0 0 1.013,9
00:06 11,6 9,3 10,8 86,0 4,2 32 - 0,0 0 1.013,9
00:05 11,6 9,3 10,8 86,0 4,1 26 - 0,0 0 1.013,9
00:04 11,6 9,3 10,8 86,0 4,0 18 - 0,0 0 1.013,8
00:03 11,6 9,3 10,8 86,0 3,9 16 - 0,0 0 1.013,9
00:02 11,6 9,3 10,8 86,0 3,5 2 - 0,0 0 1.013,9
00:01 11,6 9,3 10,8 86,0 2,9 330 - 0,0 0 1.013,9
00:00 11,6 9,3 10,8 86,0 2,4 21 - 0,4 0 1.013,9
 
23:59 11,6 9,3 10,8 86,0 2,1 355 - 0,4 0 1.013,9
23:58 11,6 9,3 10,8 86,0 2,4 37 - 0,4 0 1.013,9
23:57 11,6 9,3 10,8 86,0 2,8 8 - 0,4 0 1.013,9
23:56 11,6 9,3 10,8 86,0 2,9 5 - 0,4 0 1.013,9
23:55 11,7 9,4 10,9 86,0 2,7 0 - 0,4 0 1.013,9
23:54 11,7 9,4 10,9 86,0 2,7 42 - 0,4 0 1.013,9
23:53 11,7 9,4 10,9 86,0 3,3 39 - 0,4 0 1.013,9
23:52 11,7 9,4 10,9 86,0 3,6 27 - 0,4 0 1.014,0
23:51 11,7 9,4 10,9 86,0 3,4 42 - 0,4 0 1.014,0
23:50 11,7 9,4 10,9 86,0 3,0 34 - 0,4 0 1.014,0
23:49 11,7 9,4 10,9 86,0 2,5 64 - 0,4 0 1.014,0
23:48 11,7 9,4 10,9 86,0 2,7 15 - 0,4 0 1.013,9
23:47 11,7 9,5 10,9 86,0 3,2 31 - 0,4 0 1.014,0
23:46 11,8 9,5 11,0 86,0 3,6 57 - 0,4 0 1.014,0
23:45 11,8 9,5 11,0 86,0 3,3 42 - 0,4 0 1.014,0
23:44 11,8 9,5 11,0 86,0 3,2 36 - 0,4 0 1.014,0
23:43 11,8 9,5 11,0 86,0 3,2 35 - 0,4 0 1.014,0
23:42 11,8 9,5 11,0 86,0 3,1 38 - 0,4 0 1.014,0
23:41 11,8 9,5 11,0 86,0 2,7 50 - 0,4 0 1.014,0
23:40 11,8 9,5 11,0 86,0 2,7 33 - 0,4 0 1.014,0
23:39 11,8 9,5 11,0 86,0 3,0 34 - 0,4 0 1.014,0
23:38 11,8 9,5 11,0 86,0 3,3 58 - 0,4 0 1.014,0
23:37 11,8 9,5 11,0 86,0 3,2 43 - 0,4 0 1.014,0
23:36 11,8 9,5 11,0 86,0 3,6 27 - 0,4 0 1.014,0
23:35 11,8 9,5 11,0 86,0 4,0 32 - 0,4 0 1.014,1
23:34 11,8 9,6 11,0 86,0 4,3 57 - 0,4 0 1.014,1
23:33 11,8 9,6 11,0 86,0 4,1 62 - 0,4 0 1.014,0
23:32 11,9 9,6 11,1 86,0 3,8 49 - 0,4 0 1.014,1
23:31 11,9 9,6 11,1 86,0 3,5 57 - 0,4 0 1.014,1
23:30 11,9 9,7 11,1 86,0 3,3 35 - 0,4 0 1.014,1
23:29 11,9 9,7 11,1 86,0 3,2 33 - 0,4 0 1.014,1
23:28 11,9 9,7 11,1 86,0 3,4 59 - 0,4 0 1.014,0
23:27 11,9 9,7 11,1 86,0 3,4 43 - 0,4 0 1.014,0
23:26 12,0 9,7 11,2 86,0 3,4 36 - 0,4 0 1.014,1
23:25 12,0 9,7 11,2 86,0 3,4 32 - 0,4 0 1.014,1
23:24 12,0 9,7 11,2 86,0 3,4 55 - 0,4 0 1.014,0
23:23 12,0 9,8 11,2 86,0 3,3 41 - 0,4 0 1.014,1
23:22 12,1 9,8 11,3 86,0 3,3 35 - 0,4 0 1.014,1
23:21 12,1 9,8 11,3 86,0 3,4 53 - 0,4 0 1.014,1
23:20 12,1 9,8 11,3 86,0 3,2 36 - 0,4 0 1.014,1
23:19 12,1 9,8 11,3 86,0 2,8 32 - 0,4 0 1.014,1
23:18 12,1 9,8 11,3 86,0 2,5 36 - 0,4 0 1.014,1
23:17 12,1 9,9 11,3 86,0 2,6 39 - 0,4 0 1.014,1
23:16 12,1 9,8 11,3 86,0 2,8 13 - 0,4 0 1.014,1
23:15 12,1 9,9 11,3 86,0 2,7 41 - 0,4 0 1.014,1
23:14 12,1 9,8 11,3 86,0 2,8 52 - 0,4 0 1.014,1
23:13 12,1 9,9 11,3 86,0 3,2 44 - 0,4 0 1.014,1
23:12 12,1 9,8 11,3 86,0 3,2 43 - 0,4 0 1.014,0
23:11 12,1 9,9 11,3 86,0 2,8 37 - 0,4 0 1.014,0
23:10 12,1 9,8 11,3 86,0 2,7 70 - 0,4 0 1.014,0
23:09 12,1 9,8 11,3 86,0 3,2 3 - 0,4 0 1.014,0
23:08 12,1 9,9 11,3 86,0 3,9 32 - 0,4 0 1.014,0
23:07 12,2 9,9 11,4 86,0 4,5 47 - 0,4 0 1.014,1
23:06 12,2 9,9 11,4 86,0 4,6 30 - 0,4 0 1.014,2
23:05 12,2 9,9 11,4 86,0 4,3 36 - 0,4 0 1.014,1
23:04 12,2 9,9 11,4 86,0 4,1 17 - 0,4 0 1.014,1
23:03 12,2 9,9 11,4 86,0 3,9 45 - 0,4 0 1.014,1
23:02 12,2 9,9 11,4 86,0 3,8 37 - 0,4 0 1.014,1
23:01 12,2 9,9 11,4 86,0 3,6 41 - 0,4 0 1.014,1
23:00 12,2 9,9 11,4 86,0 3,5 30 - 0,4 0 1.014,1
 
22:59 12,2 9,9 11,4 86,0 3,8 47 - 0,4 0 1.014,1
22:58 12,2 9,9 11,4 86,0 3,8 34 - 0,4 0 1.014,1
22:57 12,2 10,0 11,5 86,0 3,9 49 - 0,4 0 1.014,1
22:56 12,3 10,0 11,5 86,0 3,9 60 - 0,4 0 1.014,2
22:55 12,3 10,0 11,5 86,0 4,0 53 - 0,4 0 1.014,1
22:54 12,3 10,0 11,5 86,0 3,8 33 - 0,4 0 1.014,1
22:53 12,3 10,0 11,5 86,0 3,7 53 - 0,4 0 1.014,1
22:52 12,3 10,0 11,5 86,0 3,8 26 - 0,4 0 1.014,1
22:51 12,3 10,0 11,5 86,0 4,1 30 - 0,4 0 1.014,1
22:50 12,3 10,0 11,5 86,0 3,9 27 - 0,4 0 1.014,1
22:49 12,3 10,1 11,5 86,0 3,4 36 - 0,4 0 1.014,1
22:48 12,3 10,1 11,5 86,0 3,0 62 - 0,4 0 1.014,1
22:47 12,3 10,1 11,5 86,0 2,9 57 - 0,4 0 1.014,1
22:46 12,4 10,1 11,6 86,0 3,1 26 - 0,4 0 1.014,0
22:45 12,4 10,1 11,6 86,0 3,5 53 - 0,4 0 1.014,0
22:44 12,4 10,2 11,7 86,0 3,4 59 - 0,4 0 1.014,0
22:43 12,4 10,2 11,7 86,0 3,1 59 - 0,4 0 1.014,0
22:42 12,4 10,2 11,7 86,0 2,7 50 - 0,4 0 1.014,0
22:41 12,4 10,2 11,7 86,0 2,9 41 - 0,4 0 1.013,9
22:40 12,4 10,2 11,7 86,0 2,9 37 - 0,4 0 1.013,9
22:39 12,5 10,2 11,7 86,0 3,0 30 - 0,4 0 1.014,0
22:38 12,5 10,2 11,7 86,0 3,2 49 - 0,4 0 1.013,9
22:37 12,5 10,2 11,7 86,0 3,7 32 - 0,4 0 1.013,9
22:36 12,5 10,2 11,7 86,0 3,8 63 - 0,4 0 1.013,9
22:35 12,6 10,3 11,8 86,0 3,6 47 - 0,4 0 1.013,9
22:34 12,6 10,3 11,8 86,0 3,6 39 - 0,4 0 1.013,9
22:33 12,6 10,3 11,8 86,0 3,7 36 - 0,4 0 1.013,9
22:32 12,6 10,3 11,8 86,0 3,9 33 - 0,4 0 1.013,9
22:31 12,6 10,3 11,8 86,0 3,8 51 - 0,4 0 1.013,9
22:30 12,6 10,3 11,8 86,0 3,4 37 - 0,4 0 1.013,9
22:29 12,6 10,3 11,8 86,0 2,8 55 - 0,4 0 1.013,9
22:28 12,6 10,3 11,8 86,0 2,5 34 - 0,4 0 1.013,9
22:27 12,6 10,3 11,8 86,0 2,7 34 - 0,4 0 1.013,9
22:26 12,6 10,3 11,8 86,0 3,0 28 - 0,4 0 1.013,8
22:25 12,6 10,3 11,8 86,0 3,2 15 - 0,4 0 1.013,9
22:24 12,6 10,4 11,9 86,0 3,6 28 - 0,4 0 1.013,9
22:23 12,7 10,4 11,9 86,0 4,1 24 - 0,4 0 1.013,8
22:22 12,7 10,4 11,9 86,0 3,9 26 - 0,4 0 1.013,9
22:21 12,7 10,4 11,9 86,0 3,1 43 - 0,4 0 1.013,9
22:20 12,7 10,4 11,9 86,0 2,5 25 - 0,4 0 1.013,9
22:19 12,7 10,4 11,9 86,0 3,1 55 - 0,4 0 1.013,9
22:18 12,7 10,4 11,9 86,0 4,0 26 - 0,4 0 1.013,8
22:17 12,7 10,4 11,9 86,0 4,5 32 - 0,4 0 1.013,9
22:16 12,7 10,4 11,9 86,0 4,4 20 - 0,4 0 1.013,9
22:15 12,7 10,4 11,9 86,0 4,3 37 - 0,4 0 1.013,9
22:14 12,7 10,4 12,0 86,0 4,2 43 - 0,4 0 1.013,9
22:13 12,7 10,5 12,0 86,0 3,8 39 - 0,4 0 1.013,8
22:12 12,8 10,5 12,0 86,0 3,6 15 - 0,4 0 1.013,9
22:11 12,8 10,5 12,0 86,0 3,9 28 - 0,4 0 1.013,8
22:10 12,7 10,4 12,0 86,0 4,3 28 - 0,4 0 1.013,8
22:09 12,8 10,5 12,0 86,0 4,0 26 - 0,4 0 1.013,9
22:08 12,8 10,5 12,0 86,0 3,7 50 - 0,4 0 1.013,8
22:07 12,8 10,5 12,0 86,0 3,8 74 - 0,4 0 1.013,8
22:06 12,8 10,5 12,0 86,0 3,9 11 - 0,4 0 1.013,8
22:05 12,8 10,5 12,0 86,0 3,8 49 - 0,4 0 1.013,8
22:04 12,8 10,5 12,0 86,0 3,8 34 - 0,4 0 1.013,8
22:03 12,8 10,5 12,1 86,0 3,9 30 - 0,4 0 1.013,8
22:02 12,8 10,5 12,1 86,0 3,9 46 - 0,4 0 1.013,8
22:01 12,9 10,6 12,1 86,0 4,3 49 - 0,4 0 1.013,8
22:00 12,9 10,6 12,1 86,0 4,2 34 - 0,4 0 1.013,8
 
21:59 12,9 10,6 12,1 86,0 3,7 14 - 0,4 0 1.013,7
21:58 13,0 10,7 12,2 86,0 3,1 62 - 0,4 0 1.013,7
21:57 13,0 10,7 12,2 86,0 3,0 38 - 0,4 0 1.013,7
21:56 13,0 10,7 12,2 86,0 3,0 46 - 0,4 0 1.013,8
21:55 13,0 10,7 12,2 86,0 2,8 48 - 0,4 0 1.013,8
21:54 13,0 10,7 12,2 86,0 2,9 26 - 0,4 0 1.013,7
21:53 13,0 10,7 12,2 86,0 2,8 34 - 0,4 0 1.013,7
21:52 13,0 10,7 12,2 86,0 2,7 34 - 0,4 0 1.013,6
21:51 13,0 10,7 12,2 86,0 2,6 40 - 0,4 0 1.013,6
21:50 13,0 10,7 12,2 86,0 2,9 1 - 0,4 0 1.013,6
21:49 13,0 10,7 12,2 86,0 3,4 34 - 0,4 0 1.013,6
21:48 13,0 10,7 12,2 86,0 4,1 37 - 0,4 0 1.013,6
21:47 13,0 10,7 12,2 86,0 4,3 55 - 0,4 0 1.013,6
21:46 13,0 10,7 12,3 86,0 4,2 35 - 0,4 0 1.013,6
21:45 13,1 10,8 12,3 86,0 4,4 39 - 0,4 0 1.013,6
21:44 13,1 10,8 12,3 86,0 4,6 55 - 0,4 0 1.013,6
21:43 13,1 10,8 12,3 86,0 4,3 31 - 0,4 0 1.013,6
21:42 13,1 10,8 12,4 86,0 4,1 36 - 0,4 0 1.013,6
21:41 13,2 10,9 12,4 86,0 3,8 45 - 0,4 0 1.013,5
21:40 13,2 10,9 12,4 86,0 3,4 67 - 0,4 0 1.013,5
21:39 13,2 10,9 12,4 86,0 3,2 20 - 0,4 0 1.013,5
21:38 13,2 10,9 12,4 86,0 3,6 54 - 0,4 0 1.013,5
21:37 13,2 10,9 12,4 86,0 3,9 39 - 0,4 0 1.013,6
21:36 13,2 10,9 12,5 86,0 4,1 9 - 0,4 0 1.013,6
21:35 13,2 10,9 12,5 86,0 3,6 29 - 0,4 0 1.013,5
21:34 13,3 11,0 12,5 86,0 3,2 359 - 0,4 0 1.013,5
21:33 13,3 11,0 12,5 86,0 3,7 41 - 0,4 0 1.013,5
21:32 13,3 11,0 12,5 86,0 4,6 34 - 0,4 0 1.013,5
21:31 13,3 11,0 12,6 86,0 4,8 24 - 0,4 0 1.013,5
21:30 13,4 11,1 12,6 86,0 4,3 55 - 0,4 0 1.013,5
21:29 13,4 11,1 12,6 86,0 3,6 12 - 0,4 0 1.013,5
21:28 13,4 11,1 12,6 86,0 3,4 3 - 0,4 0 1.013,5
21:27 13,4 11,1 12,6 86,0 3,1 20 - 0,4 0 1.013,4
21:26 13,4 11,1 12,6 86,0 3,0 34 - 0,4 0 1.013,4
21:25 13,4 11,1 12,6 86,0 3,3 350 - 0,4 0 1.013,4
21:24 13,4 11,1 12,6 86,0 3,4 6 - 0,4 0 1.013,4
21:23 13,4 11,1 12,6 86,0 3,2 28 - 0,4 0 1.013,4
21:22 13,4 11,1 12,6 86,0 3,0 1 - 0,4 0 1.013,4
21:21 13,4 11,1 12,6 86,0 3,2 50 - 0,4 0 1.013,4
21:20 13,4 11,1 12,6 86,0 3,6 10 - 0,4 3 1.013,4
21:19 13,4 11,1 12,6 86,0 4,2 18 - 0,4 5 1.013,4
21:18 13,4 11,1 12,7 86,0 4,3 32 - 0,4 5 1.013,4
21:17 13,4 11,1 12,7 86,0 4,0 30 - 0,4 5 1.013,4
21:16 13,5 11,2 12,7 86,0 3,9 69 - 0,4 5 1.013,4
21:15 13,5 11,2 12,7 86,0 3,9 48 - 0,4 5 1.013,4
21:14 13,5 11,2 12,7 86,0 4,5 355 - 0,4 5 1.013,4
21:13 13,5 11,2 12,7 85,7 4,4 32 - 0,4 5 1.013,4
21:12 13,6 11,1 12,7 85,0 3,9 38 - 0,4 7 1.013,4
21:11 13,6 11,1 12,7 85,0 3,6 355 - 0,4 7 1.013,3
21:10 13,6 11,1 12,7 85,0 3,8 3 - 0,4 7 1.013,3
21:09 13,6 11,1 12,7 85,0 4,0 28 - 0,4 7 1.013,3
21:08 13,6 11,1 12,7 85,0 4,2 339 - 0,4 7 1.013,3
21:07 13,6 11,2 12,8 85,0 4,7 359 - 0,4 7 1.013,3
21:06 13,7 11,2 12,8 85,0 4,9 1 - 0,4 7 1.013,3
21:05 13,7 11,2 12,8 85,0 4,3 350 - 0,4 7 1.013,3
21:04 13,7 11,2 12,8 85,0 3,9 45 - 0,4 7 1.013,3
21:03 13,7 11,2 12,8 85,0 3,9 11 - 0,4 7 1.013,3
21:02 13,8 11,3 12,9 85,0 4,3 64 - 0,4 7 1.013,3
21:01 13,8 11,3 12,9 85,0 4,4 39 - 0,4 9 1.013,4
21:00 13,8 11,3 13,0 85,0 4,2 41 - 0,4 9 1.013,3
 
20:59 13,8 11,4 13,0 85,0 4,0 37 - 0,4 9 1.013,4
20:58 13,8 11,4 13,0 85,0 4,2 9 - 0,4 11 1.013,4
20:57 13,9 11,4 13,0 85,0 4,1 32 - 0,4 11 1.013,3
20:56 13,9 11,4 13,0 85,0 3,8 350 - 0,4 11 1.013,3
20:55 13,9 11,5 13,1 85,0 3,8 41 - 0,4 12 1.013,3
20:54 14,0 11,5 13,1 85,0 4,2 345 - 0,4 12 1.013,3
20:53 14,0 11,5 13,1 85,0 4,3 350 - 0,4 12 1.013,3
20:52 14,0 11,5 13,1 85,0 3,9 12 - 0,4 14 1.013,3
20:51 14,0 11,5 13,1 85,0 3,6 12 - 0,4 15 1.013,3
20:50 14,0 11,5 13,2 85,0 4,0 22 - 0,4 16 1.013,3
20:49 14,0 11,5 13,2 85,0 3,9 43 - 0,4 18 1.013,3
20:48 14,0 11,5 13,2 85,0 3,7 74 - 0,4 18 1.013,3
20:47 14,0 11,5 13,2 85,0 3,5 45 - 0,4 19 1.013,3
20:46 14,0 11,6 13,2 85,0 4,2 9 - 0,4 19 1.013,3
20:45 14,0 11,5 13,2 85,0 4,8 6 - 0,4 19 1.013,2
20:44 14,0 11,6 13,2 85,0 4,9 355 - 0,4 19 1.013,2
20:43 14,1 11,6 13,2 85,0 5,0 350 - 0,4 21 1.013,3
20:42 14,1 11,5 13,1 84,4 5,2 350 - 0,4 21 1.013,4
20:41 14,1 11,6 13,2 84,8 5,4 355 - 0,4 23 1.013,3
20:40 14,2 11,7 13,3 85,0 5,2 16 - 0,4 23 1.013,4
20:39 14,2 11,7 13,3 85,0 4,5 12 - 0,4 23 1.013,4
20:38 14,2 11,7 13,3 85,0 3,8 345 - 0,4 24 1.013,4
20:37 14,2 11,7 13,3 85,0 3,8 56 - 0,4 27 1.013,4
20:36 14,2 11,7 13,3 85,0 4,3 28 - 0,4 28 1.013,3
20:35 14,2 11,7 13,3 85,0 3,9 55 - 0,4 33 1.013,4
20:34 14,2 11,7 13,3 85,0 3,7 350 - 0,4 37 1.013,4
20:33 14,2 11,5 13,2 84,0 4,1 32 - 0,4 41 1.013,2
20:32 14,2 11,6 13,3 84,4 4,6 359 - 0,4 43 1.013,3
20:31 14,3 11,8 13,4 85,0 4,9 355 - 0,4 44 1.013,3
20:30 14,3 11,8 13,4 85,0 4,9 6 - 0,4 46 1.013,3
20:29 14,3 11,8 13,4 85,0 4,7 359 - 0,4 46 1.013,3
20:28 14,3 11,8 13,4 84,9 4,7 29 - 0,4 47 1.013,2
20:27 14,3 11,7 13,4 84,0 4,8 350 - 0,4 47 1.013,1
20:26 14,3 11,7 13,4 84,0 5,1 355 - 0,4 47 1.013,1
20:25 14,4 11,7 13,4 84,0 4,9 6 - 0,4 47 1.013,1
20:24 14,4 11,7 13,4 84,0 5,0 22 - 0,4 47 1.013,2
20:23 14,4 11,8 13,5 84,0 5,0 11 - 0,4 45 1.013,3
20:22 14,4 11,8 13,5 84,0 4,5 355 - 0,4 44 1.013,2
20:21 14,5 11,8 13,5 84,0 4,1 317 - 0,4 45 1.013,3
20:20 14,5 11,8 13,5 84,0 4,4 17 - 0,4 48 1.013,2
20:19 14,5 11,9 13,6 84,0 5,5 13 - 0,4 45 1.013,1
20:18 14,6 11,9 13,6 84,0 5,8 355 - 0,4 44 1.013,2
20:17 14,6 11,9 13,6 84,0 5,7 355 - 0,4 45 1.013,2
20:16 14,6 11,9 13,6 84,0 5,5 3 - 0,4 48 1.013,2
20:15 14,7 12,0 13,7 84,0 5,4 5 - 0,4 51 1.013,1
20:14 14,7 12,0 13,7 84,0 5,2 9 - 0,4 53 1.013,1
20:13 14,7 12,0 13,7 84,0 5,0 12 - 0,4 58 1.013,1
20:12 14,7 12,1 13,8 84,0 4,7 355 - 0,4 60 1.013,1
20:11 14,7 12,1 13,8 84,0 4,4 12 - 0,4 62 1.013,1
20:10 14,7 12,0 13,7 83,9 4,2 337 - 0,4 62 1.013,1
20:09 14,7 11,9 13,6 83,0 4,1 29 - 0,4 65 1.013,1
20:08 14,7 11,9 13,6 83,0 4,7 40 - 0,4 69 1.013,1
20:07 14,7 11,9 13,7 83,0 4,5 28 - 0,4 75 1.013,0
20:06 14,8 11,9 13,7 83,0 4,6 355 - 0,4 76 1.013,0
20:05 14,8 11,9 13,7 83,0 4,7 341 - 0,4 81 1.013,0
20:04 14,8 11,9 13,7 83,0 4,6 17 - 0,4 88 1.013,0
20:03 14,8 11,9 13,7 83,0 4,5 350 - 0,4 88 1.013,0
20:02 14,8 12,0 13,7 83,0 4,9 23 - 0,4 92 1.013,0
20:01 14,9 12,0 13,8 83,0 5,4 350 - 0,4 93 1.013,0
20:00 14,9 12,1 13,8 83,0 5,7 355 - 0,4 98 1.013,2
 
19:59 14,9 12,1 13,9 83,0 5,6 345 - 0,4 103 1.013,1
19:58 15,0 12,1 13,9 83,0 5,4 350 - 0,4 117 1.013,1
19:57 15,0 12,2 14,0 83,0 5,1 359 - 0,4 128 1.013,0
19:56 15,1 12,2 14,0 83,0 5,0 355 - 0,4 133 1.013,0
19:55 15,1 12,2 14,0 83,0 5,1 20 - 0,4 134 1.013,1
19:54 15,1 12,3 14,0 83,0 5,2 8 - 0,4 135 1.013,1
19:53 15,1 12,3 14,1 83,0 5,0 345 - 0,4 139 1.013,1
19:52 15,2 12,3 14,1 83,0 5,1 15 - 0,4 147 1.013,2
19:51 15,2 12,3 14,1 83,0 5,1 15 - 0,4 154 1.013,2
19:50 15,2 12,4 14,1 83,0 4,8 28 - 0,4 152 1.013,1
19:49 15,2 12,4 14,2 83,0 4,5 345 - 0,4 149 1.013,1
19:48 15,3 12,4 14,2 83,0 4,7 337 - 0,4 150 1.013,1
19:47 15,3 12,4 14,2 83,0 4,7 355 - 0,4 150 1.013,1
19:46 15,3 12,4 14,2 83,0 4,5 334 - 0,4 153 1.013,2
19:45 15,3 12,4 14,2 83,0 4,7 29 - 0,4 160 1.013,2
19:44 15,3 12,5 14,3 83,0 5,1 23 - 0,4 157 1.013,1
19:43 15,3 12,5 14,3 83,0 4,7 20 - 0,4 153 1.013,1
19:42 15,4 12,5 14,3 83,0 4,4 350 - 0,4 156 1.013,1
19:41 15,4 12,5 14,3 83,0 4,2 345 - 0,4 160 1.013,1
19:40 15,3 12,5 14,3 83,0 3,8 14 - 0,4 163 1.013,0
19:39 15,3 12,5 14,3 83,0 3,7 350 - 0,4 165 1.013,1
19:38 15,3 12,4 14,2 83,0 4,1 341 - 0,4 167 1.013,2
19:37 15,3 12,5 14,3 83,0 4,7 317 - 0,4 168 1.013,1
19:36 15,3 12,5 14,3 83,0 4,9 345 - 0,4 173 1.013,1
19:35 15,3 12,5 14,3 83,0 4,7 345 - 0,4 178 1.013,2
19:34 15,3 12,5 14,3 83,0 4,0 345 - 0,4 181 1.013,2
19:33 15,3 12,5 14,3 83,0 3,9 42 - 0,4 184 1.013,1
19:32 15,3 12,5 14,3 83,0 4,2 355 - 0,4 185 1.013,1
19:31 15,3 12,5 14,3 83,0 4,6 3 - 0,4 185 1.013,1
19:30 15,4 12,5 14,3 83,0 4,9 345 - 0,4 186 1.013,2
19:29 15,4 12,5 14,3 83,0 5,1 345 - 0,4 183 1.013,2
19:28 15,4 12,5 14,3 83,0 4,3 336 - 0,4 186 1.013,2
19:27 15,4 12,5 14,3 83,0 3,9 31 - 0,4 188 1.013,1
19:26 15,4 12,5 14,3 83,0 4,1 16 - 0,4 183 1.013,1
19:25 15,4 12,5 14,3 83,0 4,2 350 - 0,4 171 1.013,2
19:24 15,4 12,5 14,3 83,0 4,1 47 - 0,4 168 1.013,2
19:23 15,4 12,5 14,3 83,0 4,2 355 - 0,4 171 1.013,2
19:22 15,4 12,5 14,3 83,0 4,5 5 - 0,4 167 1.013,1
19:21 15,4 12,5 14,3 83,0 4,5 26 - 0,4 163 1.013,1
19:20 15,4 12,5 14,3 83,0 4,1 345 - 0,4 161 1.013,0
19:19 15,4 12,5 14,3 83,0 4,0 345 - 0,4 156 1.013,1
19:18 15,4 12,5 14,3 83,0 4,1 27 - 0,4 160 1.013,1
19:17 15,4 12,5 14,3 83,0 4,1 345 - 0,4 166 1.013,0
19:16 15,4 12,5 14,3 83,0 4,4 336 - 0,4 177 1.013,0
19:15 15,3 12,5 14,3 83,0 4,6 341 - 0,4 192 1.013,0
19:14 15,4 12,5 14,3 83,0 4,7 345 - 0,4 194 1.013,1
19:13 15,4 12,5 14,3 83,0 4,1 345 - 0,4 186 1.013,1
19:12 15,4 12,6 14,4 83,0 4,3 278 - 0,4 180 1.013,1
19:11 15,5 12,6 14,4 83,0 4,7 340 - 0,4 179 1.013,1
19:10 15,5 12,7 14,5 83,0 5,0 329 - 0,4 177 1.013,1
19:09 15,5 12,7 14,5 83,0 4,4 359 - 0,4 188 1.013,2
19:08 15,6 12,7 14,5 83,0 4,4 19 - 0,4 195 1.013,1
19:07 15,6 12,7 14,5 83,0 4,3 34 - 0,4 192 1.013,1
19:06 15,6 12,8 14,6 83,0 4,6 341 - 0,4 203 1.013,1
19:05 15,7 12,8 14,6 83,0 4,9 3 - 0,4 202 1.013,1
19:04 15,7 12,9 14,7 83,0 4,9 32 - 0,4 205 1.013,1
19:03 15,8 13,0 14,8 83,5 4,4 338 - 0,4 191 1.013,1
19:02 15,8 12,9 14,7 83,2 4,0 355 - 0,4 177 1.013,0
19:01 15,8 13,1 14,8 83,8 3,4 355 - 0,4 186 1.013,0
19:00 15,8 12,9 14,7 83,1 3,2 8 - 0,4 204 1.013,0
 
18:59 15,8 12,9 14,7 83,0 3,2 333 - 0,4 208 1.013,0
18:58 15,7 12,9 14,7 83,0 3,2 8 - 0,4 209 1.013,0
18:57 15,7 12,9 14,7 83,0 3,4 8 - 0,4 211 1.013,0
18:56 15,7 12,9 14,7 83,0 3,3 345 - 0,4 201 1.013,1
18:55 15,7 12,9 14,7 83,0 3,2 35 - 0,4 192 1.013,1
18:54 15,7 12,9 14,7 83,0 3,5 329 - 0,4 186 1.013,0
18:53 15,8 12,9 14,7 83,0 4,1 340 - 0,4 193 1.013,1
18:52 15,8 12,9 14,7 83,0 3,3 345 - 0,4 199 1.013,1
18:51 15,7 12,9 14,7 83,0 3,3 58 - 0,4 191 1.013,1
18:50 15,8 12,9 14,7 83,0 3,7 5 - 0,4 192 1.013,0
18:49 15,8 12,9 14,7 83,0 4,0 0 - 0,4 190 1.013,0
18:48 15,8 13,1 14,8 84,0 3,9 55 - 0,4 198 1.013,0
18:47 15,7 13,0 14,8 84,0 2,8 14 - 0,4 204 1.013,0
18:46 15,7 13,0 14,7 83,6 2,0 137 - 0,4 207 1.013,0
18:45 15,7 13,0 14,7 83,6 3,0 5 - 0,4 211 1.013,0
18:44 15,7 13,1 14,8 84,0 4,6 43 - 0,4 217 1.013,0
18:43 15,7 13,0 14,8 84,0 4,4 26 - 0,4 228 1.013,0
18:42 15,7 13,0 14,8 84,0 4,0 68 - 0,4 232 1.013,0
18:41 15,7 13,0 14,8 84,0 4,0 14 - 0,4 243 1.013,0
18:40 15,7 13,1 14,8 84,0 4,1 37 - 0,4 233 1.013,0
18:39 15,8 13,1 14,8 84,0 4,1 10 - 0,4 226 1.013,0
18:38 15,8 13,1 14,8 84,0 4,3 9 - 0,4 216 1.013,0
18:37 15,8 13,1 14,8 84,0 3,8 7 - 0,4 197 1.013,0
18:36 15,8 13,1 14,8 84,2 3,2 64 - 0,4 190 1.012,9
18:35 15,8 13,2 14,9 85,0 3,3 355 - 0,4 190 1.013,0
18:34 15,8 13,2 14,9 85,0 4,0 33 - 0,4 217 1.013,1
18:33 15,8 13,3 15,0 85,0 4,2 359 - 0,4 184 1.013,0
18:32 15,8 13,3 15,0 85,0 4,2 350 - 0,4 178 1.013,0
18:31 15,8 13,3 15,0 85,0 3,9 359 - 0,4 175 1.013,0
18:30 15,8 13,2 14,9 85,0 3,9 355 - 0,4 166 1.012,9
18:29 15,8 13,2 14,9 85,0 4,0 336 - 0,4 208 1.013,0
18:28 15,8 13,3 15,0 85,0 4,1 345 - 0,4 177 1.013,0
18:27 15,8 13,2 14,9 85,0 4,1 334 - 0,4 176 1.013,1
18:26 15,7 13,2 14,9 85,0 4,1 345 - 0,4 225 1.013,0
18:25 15,7 13,2 14,9 85,0 4,2 338 - 0,4 215 1.013,0
18:24 15,7 13,2 14,9 85,0 4,6 311 - 0,4 249 1.013,1
18:23 15,7 13,2 14,9 85,0 4,5 338 - 0,4 257 1.013,0
18:22 15,7 13,2 14,9 85,0 4,5 350 - 0,4 264 1.013,0
18:21 15,7 13,2 14,9 85,0 4,5 350 - 0,4 264 1.013,0
18:20 15,7 13,2 14,9 85,0 4,4 350 - 0,4 270 1.013,0
18:19 15,7 13,2 14,9 85,0 4,1 350 - 0,4 269 1.013,1
18:18 15,7 13,2 14,8 85,0 4,0 350 - 0,4 264 1.013,0
18:17 15,7 13,2 14,8 85,0 4,0 355 - 0,4 255 1.013,0
18:16 15,7 13,1 14,8 85,0 4,3 328 - 0,4 250 1.013,1
18:15 15,6 13,1 14,8 85,0 4,4 345 - 0,4 251 1.013,1
18:14 15,6 13,1 14,8 85,0 4,2 329 - 0,4 251 1.013,1
18:13 15,6 13,1 14,8 85,0 4,2 345 - 0,4 246 1.013,1
18:12 15,6 13,1 14,8 85,0 4,3 345 - 0,4 242 1.013,0
18:11 15,6 13,0 14,7 85,0 4,3 345 - 0,4 244 1.013,1
18:10 15,6 13,0 14,7 85,0 4,4 355 - 0,4 242 1.013,1
18:09 15,6 13,0 14,7 85,0 4,6 18 - 0,4 247 1.013,1
18:08 15,6 13,0 14,7 85,0 4,4 11 - 0,4 251 1.013,0
18:07 15,5 13,0 14,7 85,0 4,1 355 - 0,4 252 1.013,0
18:06 15,5 13,0 14,7 85,0 4,3 350 - 0,4 253 1.013,0
18:05 15,5 13,0 14,7 85,0 4,6 345 - 0,4 246 1.013,0
18:04 15,4 12,9 14,6 85,0 4,5 345 - 0,4 244 1.013,0
18:03 15,4 12,9 14,6 85,0 4,6 338 - 0,4 233 1.013,0
18:02 15,4 12,9 14,6 85,0 5,0 333 - 0,4 231 1.013,1
18:01 15,4 12,9 14,6 85,0 5,2 350 - 0,4 233 1.013,1
18:00 15,5 13,0 14,6 85,0 5,2 336 - 0,4 233 1.013,0
 
17:59 15,5 13,0 14,7 85,0 5,3 355 - 0,4 240 1.013,1
17:58 15,5 13,0 14,7 85,0 5,4 331 - 0,4 256 1.013,1
17:57 15,5 13,0 14,7 85,0 5,4 345 - 0,4 256 1.013,1
17:56 15,5 13,0 14,7 85,0 5,1 340 - 0,4 262 1.013,1
17:55 15,5 13,0 14,7 85,0 5,1 332 - 0,4 267 1.013,1
17:54 15,5 13,0 14,7 85,0 5,2 336 - 0,4 266 1.013,1
17:53 15,5 13,0 14,7 85,0 5,1 340 - 0,4 253 1.013,2
17:52 15,5 13,0 14,7 85,0 5,3 15 - 0,4 259 1.013,2
17:51 15,6 13,0 14,7 85,0 5,5 355 - 0,4 259 1.013,1
17:50 15,6 13,0 14,7 85,0 5,3 350 - 0,4 262 1.013,2
17:49 15,6 13,0 14,7 85,0 5,5 339 - 0,4 261 1.013,3
17:48 15,6 13,1 14,7 85,0 5,6 337 - 0,4 257 1.013,2
17:47 15,6 13,0 14,7 84,5 5,4 340 - 0,4 264 1.013,1
17:46 15,6 12,9 14,6 84,0 5,2 345 - 0,4 270 1.013,1
17:45 15,6 12,9 14,7 84,0 5,3 355 - 0,4 278 1.013,2
17:44 15,7 13,0 14,7 84,0 5,5 350 - 0,4 287 1.013,2
17:43 15,7 13,0 14,7 84,0 5,3 341 - 0,4 290 1.013,2
17:42 15,7 13,0 14,7 84,0 5,2 345 - 0,4 284 1.013,2
17:41 15,7 13,0 14,8 84,0 5,4 336 - 0,4 278 1.013,2
17:40 15,8 13,1 14,8 84,0 5,7 339 - 0,4 276 1.013,1
17:39 15,8 12,9 14,7 83,2 5,7 340 - 0,4 270 1.013,1
17:38 15,8 13,0 14,8 83,0 5,8 5 - 0,4 283 1.013,2
17:37 15,9 13,0 14,9 83,0 6,0 338 - 0,4 267 1.013,2
17:36 16,0 13,1 14,9 83,0 6,3 334 - 0,4 282 1.013,2
17:35 16,1 13,2 15,0 83,0 6,4 327 - 0,4 304 1.013,2
17:34 16,2 13,3 15,1 83,0 6,3 336 - 0,4 254 1.013,1
17:33 16,2 13,3 15,1 83,0 5,8 336 - 0,4 263 1.013,2
17:32 16,2 13,3 15,1 83,0 5,3 338 - 0,4 340 1.013,1
17:31 16,2 13,3 15,1 83,0 5,1 333 - 0,4 322 1.013,1
17:30 16,2 13,3 15,2 83,0 5,1 338 - 0,4 311 1.013,1
17:29 16,2 13,3 15,1 83,0 4,8 350 - 0,4 316 1.013,1
17:28 16,2 13,3 15,1 83,0 4,3 15 - 0,4 336 1.013,0
17:27 16,2 13,3 15,1 83,0 3,5 326 - 0,4 324 1.013,0
17:26 16,2 13,3 15,1 83,0 3,4 9 - 0,4 343 1.013,1
17:25 16,2 13,3 15,1 83,0 4,1 39 - 0,4 327 1.013,3
17:24 16,2 13,4 15,2 83,0 4,4 338 - 0,4 277 1.013,2
17:23 16,3 13,4 15,3 83,0 5,4 306 - 0,4 273 1.013,2
17:22 16,4 13,5 15,3 83,0 5,3 326 - 0,4 306 1.013,2
17:21 16,4 13,5 15,4 83,0 5,2 345 - 0,4 297 1.013,2
17:20 16,5 13,6 15,4 83,0 5,0 338 - 0,4 301 1.013,1
17:19 16,5 13,6 15,4 83,0 4,8 332 - 0,4 316 1.013,1
17:18 16,5 13,6 15,4 83,0 4,3 329 - 0,4 312 1.013,1
17:17 16,5 13,6 15,4 83,0 3,4 359 - 0,4 312 1.013,1
17:16 16,5 13,6 15,4 83,0 3,3 46 - 0,4 326 1.013,1
17:15 16,4 13,7 15,5 83,9 3,1 40 - 0,4 328 1.013,1
17:14 16,4 13,7 15,4 83,8 2,8 345 - 0,4 323 1.013,0
17:13 16,4 13,5 15,3 83,4 2,6 58 - 0,4 327 1.013,1
17:12 16,3 13,6 15,4 84,0 3,1 66 - 0,4 334 1.013,1
17:11 16,3 13,6 15,4 84,0 3,3 12 - 0,4 324 1.013,2
17:10 16,3 13,5 15,3 83,3 4,1 341 - 0,4 329 1.013,1
17:09 16,3 13,4 15,2 83,0 4,0 1 - 0,4 338 1.013,0
17:08 16,3 13,4 15,2 83,0 4,0 26 - 0,4 354 1.013,1
17:07 16,2 13,4 15,2 83,0 4,3 355 - 0,4 358 1.013,1
17:06 16,3 13,5 15,3 83,5 4,6 5 - 0,4 361 1.013,1
17:05 16,3 13,5 15,3 83,4 4,5 345 - 0,4 369 1.013,1
17:04 16,2 13,4 15,2 83,0 4,4 345 - 0,4 369 1.013,2
17:03 16,3 13,4 15,2 83,0 4,7 328 - 0,4 369 1.013,2
17:02 16,3 13,5 15,3 83,0 5,0 335 - 0,4 367 1.013,2
17:01 16,3 13,5 15,3 83,0 4,8 327 - 0,4 371 1.013,1
17:00 16,3 13,5 15,3 83,0 4,3 336 - 0,4 370 1.013,1
 
16:58 16,3 13,5 15,3 83,0 4,2 12 - 0,4 380 1.013,1
16:57 16,3 13,5 15,3 83,1 4,6 345 - 0,4 377 1.013,1
16:56 16,4 13,6 15,4 83,8 4,6 5 - 0,4 391 1.013,1
16:55 16,3 13,5 15,3 83,0 4,2 350 - 0,4 394 1.013,1
16:54 16,3 13,5 15,3 83,0 4,1 35 - 0,4 403 1.013,1
16:53 16,3 13,5 15,3 83,0 4,6 2 - 0,4 353 1.013,1
16:52 16,3 13,5 15,3 83,0 5,1 355 - 0,4 351 1.013,1
16:51 16,4 13,5 15,3 83,0 4,9 7 - 0,4 390 1.013,1
16:50 16,3 13,5 15,3 83,0 4,7 338 - 0,4 436 1.013,1
16:49 16,3 13,5 15,3 83,0 4,7 345 - 0,4 432 1.013,1
16:48 16,4 13,5 15,3 83,0 4,7 355 - 0,4 431 1.013,1
16:47 16,4 13,4 15,3 82,3 4,7 333 - 0,4 459 1.013,1
16:46 16,5 13,4 15,3 82,0 5,2 301 - 0,4 459 1.013,1
16:45 16,5 13,6 15,5 82,8 5,2 345 - 0,4 454 1.013,2
16:44 16,6 13,5 15,4 82,0 5,0 338 - 0,4 425 1.013,2
16:43 16,6 13,5 15,4 82,0 4,9 355 - 0,4 392 1.013,2
16:42 16,6 13,6 15,4 82,0 4,9 341 - 0,4 388 1.013,2
16:41 16,7 13,6 15,5 82,0 5,0 355 - 0,4 388 1.013,2
16:40 16,8 13,7 15,6 82,0 5,2 350 - 0,4 428 1.013,2
16:39 16,8 13,7 15,6 82,0 5,4 350 - 0,4 446 1.013,2
16:38 16,9 13,8 15,7 82,0 5,4 338 - 0,4 447 1.013,2
16:37 16,9 13,9 15,8 82,0 5,0 1 - 0,4 450 1.013,2
16:36 17,0 13,9 15,8 82,0 4,6 336 - 0,4 421 1.013,2
16:35 17,0 13,9 15,8 82,0 4,2 3 - 0,4 435 1.013,2
16:34 17,0 13,9 15,8 82,0 4,1 14 - 0,4 426 1.013,2
16:33 16,9 13,9 15,8 82,0 4,1 355 - 0,4 437 1.013,2
16:32 16,9 13,9 15,8 82,0 4,0 1 - 0,4 451 1.013,2
16:31 16,9 13,9 15,8 82,0 3,9 27 - 0,4 454 1.013,2
16:30 16,9 13,9 15,8 82,0 3,7 27 - 0,4 453 1.013,2
16:29 16,9 13,9 15,8 82,0 3,5 53 - 0,4 481 1.013,2
16:28 16,9 13,8 15,7 82,0 3,6 20 - 0,4 488 1.013,2
16:27 16,9 13,8 15,7 82,0 3,9 21 - 0,4 477 1.013,2
16:26 16,8 13,8 15,7 82,0 3,8 350 - 0,4 478 1.013,2
16:25 16,8 13,7 15,6 82,0 3,7 5 - 0,4 480 1.013,2
16:24 16,8 13,7 15,6 82,0 3,8 3 - 0,4 429 1.013,3
16:23 16,8 13,8 15,6 82,0 4,1 5 - 0,4 456 1.013,3
16:22 16,8 13,8 15,7 82,0 4,1 0 - 0,4 428 1.013,4
16:21 16,8 13,8 15,6 82,0 3,8 336 - 0,4 435 1.013,3
16:20 16,8 13,7 15,6 82,0 3,5 303 - 0,4 445 1.013,2
16:19 16,8 13,7 15,6 82,0 3,3 341 - 0,4 430 1.013,3
16:18 16,8 13,7 15,6 82,0 3,8 350 - 0,4 431 1.013,3
16:17 16,8 13,7 15,6 82,0 4,1 3 - 0,4 438 1.013,3
16:16 16,8 13,7 15,6 82,1 3,9 6 - 0,4 470 1.013,3
16:15 16,8 13,9 15,7 83,0 3,4 4 - 0,4 521 1.013,3
16:14 16,8 13,9 15,7 83,0 3,4 337 - 0,4 529 1.013,3
16:13 16,8 13,9 15,7 83,0 3,8 3 - 0,4 529 1.013,4
16:12 16,7 13,8 15,7 83,0 3,8 340 - 0,4 532 1.013,4
16:11 16,7 13,8 15,7 83,0 3,4 323 - 0,4 519 1.013,4
16:10 16,7 13,8 15,6 83,0 3,4 21 - 0,4 467 1.013,4
16:09 16,6 13,8 15,6 83,0 3,6 345 - 0,4 460 1.013,4
16:08 16,6 13,7 15,6 83,0 3,7 19 - 0,4 487 1.013,4
16:07 16,7 13,8 15,6 83,0 4,0 355 - 0,4 477 1.013,4
16:06 16,7 13,8 15,7 83,0 4,4 355 - 0,4 308 1.013,3
16:05 16,7 13,8 15,7 83,0 3,9 359 - 0,4 355 1.013,3
16:04 16,7 13,8 15,6 83,0 2,6 334 - 0,4 443 1.013,3
16:03 16,6 13,7 15,6 83,0 2,4 70 - 0,4 489 1.013,4
16:02 16,6 13,7 15,6 83,0 3,1 2 - 0,4 433 1.013,4
16:01 16,6 13,7 15,5 83,0 3,7 355 - 0,4 548 1.013,4
16:00 16,6 13,7 15,5 83,0 3,8 311 - 0,4 563 1.013,4
 
15:59 16,6 13,7 15,5 83,0 4,1 336 - 0,4 561 1.013,4
15:58 16,6 13,5 15,4 82,1 4,4 333 - 0,4 557 1.013,4
15:57 16,6 13,5 15,4 82,0 4,7 323 - 0,4 563 1.013,4
15:56 16,7 13,6 15,5 82,0 4,9 336 - 0,4 564 1.013,4
15:55 16,8 13,7 15,6 82,0 5,2 336 - 0,4 554 1.013,4
15:54 16,8 13,8 15,7 82,0 5,1 333 - 0,4 482 1.013,4
15:53 16,9 13,8 15,7 82,0 4,0 332 - 0,4 369 1.013,4
15:52 16,9 13,9 15,8 82,0 3,6 50 - 0,4 398 1.013,5
15:51 17,0 13,9 15,8 82,0 3,8 345 - 0,4 467 1.013,5
15:50 17,0 14,0 15,9 82,5 4,0 9 - 0,4 489 1.013,4
15:49 17,0 14,0 15,9 82,4 3,7 337 - 0,4 482 1.013,4
15:48 17,0 14,1 15,9 82,8 3,4 321 - 0,4 364 1.013,4
15:47 17,0 14,1 16,0 83,0 3,1 13 - 0,4 364 1.013,4
15:46 17,0 14,1 15,9 82,8 3,2 355 - 0,4 400 1.013,4
15:45 17,0 13,9 15,8 82,0 3,3 2 - 0,4 388 1.013,4
15:44 16,9 14,0 15,9 82,7 3,5 4 - 0,4 417 1.013,4
15:43 16,9 14,0 15,9 83,0 3,3 345 - 0,4 436 1.013,4
15:42 16,9 14,0 15,9 83,0 3,2 6 - 0,4 486 1.013,4
15:41 16,9 14,0 15,8 83,0 3,0 329 - 0,4 491 1.013,4
15:40 16,8 13,9 15,8 83,0 2,9 30 - 0,4 507 1.013,5
15:39 16,8 13,9 15,8 83,0 3,3 65 - 0,4 525 1.013,4
15:38 16,8 13,9 15,7 83,0 2,9 355 - 0,4 539 1.013,4
15:37 16,8 13,9 15,7 83,0 3,1 1 - 0,4 543 1.013,4
15:36 16,7 13,9 15,7 83,0 3,2 323 - 0,4 556 1.013,5
15:35 16,7 13,8 15,7 82,9 3,7 355 - 0,4 551 1.013,5
15:34 16,7 13,7 15,6 82,3 3,9 345 - 0,4 489 1.013,4
15:33 16,8 13,9 15,7 83,0 3,9 355 - 0,4 481 1.013,4
15:32 16,8 13,9 15,7 83,0 3,6 332 - 0,4 495 1.013,4
15:31 16,8 13,9 15,7 83,0 3,4 30 - 0,4 488 1.013,4
15:30 16,7 13,8 15,7 83,0 2,9 338 - 0,4 545 1.013,4
15:29 16,7 13,8 15,7 83,0 2,7 43 - 0,4 530 1.013,4
15:28 16,7 13,9 15,7 83,5 3,3 335 - 0,4 527 1.013,5
15:27 16,7 14,0 15,8 84,0 3,9 327 - 0,4 528 1.013,4
15:26 16,7 14,0 15,7 84,0 3,5 330 - 0,4 501 1.013,3
15:25 16,6 13,9 15,7 84,0 3,0 337 - 0,4 488 1.013,4
15:24 16,6 13,7 15,5 83,2 3,0 335 - 0,4 478 1.013,4
15:23 16,6 13,7 15,5 83,0 2,9 345 - 0,4 478 1.013,4
15:22 16,5 13,7 15,5 83,0 3,1 355 - 0,4 478 1.013,5
15:21 16,6 13,8 15,6 83,5 3,7 4 - 0,4 478 1.013,5
15:20 16,6 13,9 15,6 84,0 4,2 5 - 0,4 501 1.013,4
15:19 16,5 13,8 15,6 84,0 3,8 20 - 0,4 499 1.013,4
15:18 16,5 13,8 15,6 84,0 3,4 340 - 0,4 501 1.013,4
15:17 16,5 13,8 15,6 84,0 3,4 345 - 0,4 503 1.013,3
15:16 16,4 13,8 15,6 84,3 3,0 332 - 0,4 507 1.013,4
15:15 16,4 13,9 15,6 85,0 3,3 55 - 0,4 511 1.013,3
15:14 16,4 13,7 15,5 84,4 3,5 24 - 0,4 522 1.013,3
15:13 16,3 13,6 15,4 84,0 3,7 1 - 0,4 490 1.013,4
15:12 16,3 13,8 15,5 84,9 4,1 4 - 0,4 490 1.013,4
15:11 16,3 13,8 15,5 85,0 4,3 345 - 0,4 503 1.013,4
15:10 16,3 13,8 15,5 85,0 4,0 345 - 0,4 514 1.013,4
15:09 16,3 13,8 15,5 85,0 3,7 332 - 0,4 518 1.013,4
15:08 16,3 13,8 15,5 85,0 3,7 312 - 0,4 534 1.013,4
15:07 16,2 13,7 15,4 85,0 3,7 334 - 0,4 534 1.013,4
15:06 16,2 13,7 15,4 85,0 3,7 326 - 0,4 509 1.013,4
15:05 16,2 13,7 15,4 85,0 4,1 309 - 0,4 439 1.013,4
15:04 16,2 13,6 15,4 84,7 4,4 325 - 0,4 507 1.013,4
15:03 16,2 13,6 15,3 84,5 4,6 345 - 0,4 536 1.013,4
15:02 16,2 13,7 15,4 85,0 4,6 338 - 0,4 512 1.013,4
15:01 16,2 13,7 15,4 85,0 4,3 330 - 0,4 495 1.013,4
15:00 16,2 13,7 15,4 85,0 4,1 294 - 0,4 497 1.013,5
 
14:59 16,2 13,5 15,3 84,2 4,0 330 - 0,4 503 1.013,5
14:58 16,2 13,7 15,4 85,0 4,3 345 - 0,4 515 1.013,4
14:57 16,3 13,8 15,5 85,0 4,3 334 - 0,4 525 1.013,4
14:56 16,3 13,7 15,5 85,0 4,2 330 - 0,4 523 1.013,4
14:55 16,3 13,7 15,5 85,0 4,1 350 - 0,4 519 1.013,4
14:54 16,3 13,7 15,5 85,0 4,4 345 - 0,4 498 1.013,5
14:53 16,3 13,8 15,5 85,0 4,8 341 - 0,4 423 1.013,5
14:52 16,3 13,8 15,5 85,0 4,9 336 - 0,4 505 1.013,5
14:51 16,3 13,8 15,5 85,0 4,6 338 - 0,4 550 1.013,4
14:50 16,3 13,8 15,5 85,0 4,3 355 - 0,4 547 1.013,3
14:49 16,3 13,8 15,5 85,0 4,4 330 - 0,4 525 1.013,4
14:48 16,3 13,9 15,6 86,0 4,4 332 - 0,4 511 1.013,4
14:47 16,3 13,9 15,6 86,0 4,1 338 - 0,4 503 1.013,4
14:46 16,2 13,9 15,5 86,0 3,6 336 - 0,4 520 1.013,3
14:45 16,2 13,8 15,5 86,0 3,6 323 - 0,4 536 1.013,4
14:44 16,2 13,8 15,5 86,0 3,9 330 - 0,4 565 1.013,4
14:43 16,1 13,8 15,5 86,0 4,2 323 - 0,4 580 1.013,4
14:42 16,1 13,7 15,4 86,0 4,3 355 - 0,4 553 1.013,4
14:41 16,0 13,7 15,3 86,0 4,2 359 - 0,4 573 1.013,3
14:40 15,9 13,5 15,2 85,6 4,0 321 - 0,4 625 1.013,3
14:39 15,9 13,4 15,1 85,0 4,2 338 - 0,4 622 1.013,3
14:38 15,9 13,4 15,1 85,0 4,5 328 - 0,4 592 1.013,3
14:37 16,0 13,6 15,3 85,9 4,5 338 - 0,4 580 1.013,3
14:35 16,0 13,7 15,3 86,0 4,4 328 - 0,4 622 1.013,4
14:34 16,1 13,7 15,4 86,0 4,3 345 - 0,4 622 1.013,4
14:33 16,0 13,6 15,3 85,4 4,3 333 - 0,4 622 1.013,4
14:32 16,0 13,5 15,2 85,0 4,4 355 - 0,4 609 1.013,4
14:31 16,1 13,5 15,3 85,1 4,5 345 - 0,4 579 1.013,4
14:30 16,1 13,7 15,4 85,9 4,5 345 - 0,4 593 1.013,4
14:29 16,0 13,6 15,3 85,3 4,2 328 - 0,4 607 1.013,4
14:28 16,1 13,7 15,4 86,0 3,8 336 - 0,4 618 1.013,4
14:27 16,0 13,7 15,4 86,0 3,4 323 - 0,4 619 1.013,4
14:26 16,0 13,7 15,3 86,0 3,1 332 - 0,4 618 1.013,4
14:25 16,0 13,7 15,3 86,0 3,3 330 - 0,4 630 1.013,4
14:24 16,0 13,7 15,3 86,0 3,5 331 - 0,4 577 1.013,4
14:23 16,0 13,7 15,3 86,0 3,8 334 - 0,4 534 1.013,4
14:22 16,0 13,7 15,3 86,0 3,6 326 - 0,4 612 1.013,4
14:21 16,0 13,7 15,3 86,0 3,4 345 - 0,4 625 1.013,4
14:20 16,0 13,7 15,3 86,0 3,4 338 - 0,4 619 1.013,4
14:19 16,0 13,6 15,3 85,8 3,6 334 - 0,4 618 1.013,4
14:18 16,0 13,5 15,2 85,0 3,6 334 - 0,4 617 1.013,4
14:17 16,0 13,5 15,2 85,4 3,7 325 - 0,4 611 1.013,4
14:16 16,1 13,7 15,4 86,0 3,8 331 - 0,4 617 1.013,4
14:15 16,1 13,8 15,4 86,0 3,9 359 - 0,4 628 1.013,4
14:14 16,2 13,8 15,5 86,0 4,0 345 - 0,4 625 1.013,4
14:13 16,2 13,9 15,5 86,0 3,8 338 - 0,4 550 1.013,4
14:12 16,2 13,9 15,6 86,0 3,4 338 - 0,4 469 1.013,3
14:11 16,3 13,9 15,6 86,0 3,2 334 - 0,4 469 1.013,4
14:10 16,3 13,9 15,6 86,0 3,4 327 - 0,4 595 1.013,4
14:09 16,2 13,9 15,6 86,0 3,5 314 - 0,4 617 1.013,4
14:08 16,2 13,9 15,5 86,0 3,4 307 - 0,4 610 1.013,3
14:07 16,2 13,9 15,5 86,0 3,3 307 - 0,4 583 1.013,3
14:06 16,2 13,8 15,5 86,0 3,4 313 - 0,4 573 1.013,3
14:05 16,2 13,8 15,5 86,0 3,5 320 - 0,4 582 1.013,4
14:04 16,2 13,8 15,5 86,0 3,6 311 - 0,4 596 1.013,4
14:03 16,2 13,8 15,5 86,0 3,6 315 - 0,4 593 1.013,3
14:02 16,2 13,8 15,5 86,0 3,6 305 - 0,4 591 1.013,4
14:01 16,1 13,8 15,4 86,0 3,6 315 - 0,4 576 1.013,4
14:00 16,1 13,8 15,4 86,0 3,7 315 - 0,4 575 1.013,3
 
13:59 16,1 13,8 15,4 86,0 3,8 325 - 0,4 572 1.013,4
13:58 16,1 13,8 15,4 86,0 4,0 306 - 0,4 547 1.013,4
13:57 16,1 13,8 15,4 86,0 4,1 325 - 0,4 567 1.013,5
13:56 16,1 13,8 15,4 86,0 4,1 316 - 0,4 597 1.013,5
13:55 16,1 13,7 15,4 85,7 4,0 314 - 0,4 633 1.013,4
13:54 16,1 13,6 15,3 85,0 4,0 319 - 0,4 639 1.013,4
13:53 16,1 13,6 15,3 85,0 3,8 313 - 0,4 633 1.013,4
13:52 16,2 13,8 15,4 85,6 3,8 299 - 0,4 607 1.013,5
13:51 16,2 13,7 15,4 85,1 3,7 303 - 0,4 608 1.013,5
13:50 16,2 13,7 15,4 85,0 3,6 303 - 0,4 600 1.013,4
13:49 16,2 13,7 15,4 85,0 3,5 298 - 0,4 592 1.013,4
13:48 16,2 13,7 15,4 85,0 3,5 314 - 0,4 607 1.013,5
13:47 16,3 13,7 15,5 85,0 3,5 313 - 0,4 595 1.013,4
13:46 16,3 13,8 15,5 85,0 3,3 307 - 0,4 590 1.013,4
13:45 16,3 13,8 15,5 85,0 3,1 303 - 0,4 598 1.013,4
13:44 16,3 13,7 15,5 85,0 2,8 298 - 0,4 594 1.013,4
13:43 16,2 13,7 15,4 85,0 2,7 301 - 0,4 597 1.013,4
13:42 16,3 13,8 15,5 85,0 2,8 307 - 0,4 605 1.013,4
13:41 16,2 13,7 15,4 85,0 2,9 302 - 0,4 619 1.013,4
13:40 16,2 13,7 15,4 85,0 2,7 308 - 0,4 622 1.013,4
13:39 16,2 13,7 15,4 85,0 2,6 310 - 0,4 625 1.013,4
13:38 16,2 13,7 15,4 85,1 2,5 310 - 0,4 622 1.013,3
13:37 16,1 13,8 15,4 86,0 2,3 307 - 0,4 611 1.013,3
13:36 16,1 13,8 15,4 86,0 2,2 307 - 0,4 586 1.013,4
13:35 16,1 13,7 15,4 86,0 2,2 304 - 0,4 607 1.013,4
13:34 16,0 13,7 15,4 86,0 2,2 307 - 0,4 613 1.013,4
13:33 16,0 13,5 15,2 85,2 2,2 307 - 0,4 624 1.013,5
13:32 16,0 13,7 15,3 86,0 2,3 305 - 0,4 599 1.013,5
13:31 16,0 13,7 15,3 86,0 2,4 310 - 0,4 593 1.013,5
13:30 16,0 13,7 15,3 86,0 2,4 311 - 0,4 597 1.013,4
13:29 16,0 13,6 15,2 85,5 2,5 296 - 0,4 576 1.013,5
13:28 16,0 13,5 15,2 85,0 2,6 305 - 0,4 582 1.013,5
13:27 16,0 13,5 15,2 85,0 2,7 295 - 0,4 572 1.013,5
13:26 16,0 13,5 15,2 85,1 2,7 296 - 0,4 540 1.013,5
13:25 16,0 13,6 15,3 85,7 2,7 305 - 0,4 518 1.013,5
13:24 16,0 13,4 15,1 85,0 2,8 311 - 0,4 569 1.013,5
13:23 16,0 13,4 15,1 85,0 2,9 308 - 0,4 580 1.013,5
13:22 16,0 13,4 15,1 85,0 3,0 298 - 0,4 605 1.013,4
13:21 16,0 13,5 15,2 85,0 3,1 290 - 0,4 602 1.013,5
13:20 16,0 13,5 15,2 85,0 3,2 298 - 0,4 612 1.013,5
13:19 16,0 13,5 15,2 85,0 3,1 290 - 0,4 620 1.013,5
13:18 16,0 13,5 15,2 85,0 3,1 296 - 0,4 647 1.013,5
13:17 16,0 13,5 15,2 85,0 3,1 304 - 0,4 665 1.013,5
13:16 16,0 13,5 15,2 85,0 2,9 299 - 0,4 674 1.013,4
13:15 16,0 13,5 15,2 85,0 2,8 293 - 0,4 709 1.013,5
13:14 16,0 13,5 15,2 85,0 2,8 294 - 0,4 714 1.013,5
13:13 15,9 13,4 15,1 85,0 2,8 289 - 0,4 714 1.013,5
13:12 15,9 13,4 15,1 85,0 2,7 290 - 0,4 744 1.013,5
13:11 15,9 13,2 15,0 84,4 2,6 292 - 0,4 673 1.013,5
13:10 15,8 13,1 14,9 84,0 2,7 286 - 0,4 617 1.013,5
13:09 15,8 13,1 14,9 84,0 2,7 282 - 0,4 617 1.013,5
13:08 15,8 13,1 14,8 84,0 2,6 274 - 0,4 580 1.013,5
13:07 15,8 13,1 14,8 84,0 2,5 279 - 0,4 531 1.013,5
13:06 15,8 13,1 14,8 84,0 2,5 271 - 0,4 441 1.013,5
13:05 15,7 13,0 14,8 84,0 2,6 274 - 0,4 420 1.013,5
13:04 15,7 13,0 14,8 84,0 2,8 269 - 0,4 408 1.013,5
13:03 15,7 13,0 14,8 84,1 3,1 276 - 0,4 373 1.013,5
13:02 15,7 13,2 14,9 85,0 3,1 274 - 0,4 556 1.013,5
13:01 15,7 13,2 14,9 85,0 3,0 273 - 0,4 705 1.013,5
13:00 15,7 13,2 14,9 85,0 2,8 276 - 0,4 711 1.013,5
 
12:59 15,6 13,1 14,8 85,0 2,7 276 - 0,4 683 1.013,5
12:58 15,6 13,0 14,7 85,0 2,7 272 - 0,4 527 1.013,5
12:57 15,5 13,0 14,7 85,0 2,8 261 - 0,4 494 1.013,5
12:56 15,5 13,0 14,7 85,0 2,7 262 - 0,4 385 1.013,5
12:55 15,4 12,9 14,6 85,0 2,5 263 - 0,4 329 1.013,5
12:54 15,4 13,0 14,6 85,5 2,3 255 - 0,4 293 1.013,5
12:53 15,4 13,1 14,7 86,0 2,2 251 - 0,4 278 1.013,5
12:52 15,4 13,0 14,7 86,0 2,2 254 - 0,4 272 1.013,5
12:51 15,3 13,0 14,6 86,0 2,1 254 - 0,4 268 1.013,5
12:50 15,3 13,0 14,6 86,0 2,1 250 - 0,4 260 1.013,5
12:49 15,3 13,0 14,6 86,4 2,1 250 - 0,4 258 1.013,6
12:48 15,3 13,1 14,7 87,0 2,0 250 - 0,4 258 1.013,5
12:47 15,3 13,1 14,7 87,0 1,8 243 - 0,4 253 1.013,5
12:46 15,2 13,1 14,6 87,0 1,7 249 - 0,4 245 1.013,5
12:45 15,2 13,1 14,7 87,2 1,7 237 - 0,4 238 1.013,5
12:44 15,2 13,2 14,8 88,0 1,8 236 - 0,4 232 1.013,5
12:43 15,2 13,2 14,8 88,0 1,8 235 - 0,4 229 1.013,6
12:42 15,2 13,2 14,7 88,0 1,7 249 - 0,4 230 1.013,5
12:41 15,2 13,2 14,7 88,0 1,8 232 - 0,4 243 1.013,5
12:40 15,2 13,2 14,7 88,0 1,9 249 - 0,4 251 1.013,6
12:39 15,2 13,2 14,7 88,0 2,0 242 - 0,4 253 1.013,6
12:38 15,1 13,2 14,7 88,0 2,1 221 - 0,4 256 1.013,6
12:37 15,1 13,1 14,6 88,0 2,3 241 - 0,4 261 1.013,6
12:36 15,1 13,3 14,7 88,7 2,4 240 - 0,4 263 1.013,5
12:35 15,1 13,3 14,8 89,0 2,5 245 - 0,4 262 1.013,6
12:34 15,1 13,3 14,8 89,0 2,5 237 - 0,4 256 1.013,6
12:33 15,1 13,3 14,8 89,0 2,6 219 - 0,4 253 1.013,6
12:32 15,1 13,3 14,7 89,0 2,6 243 - 0,4 260 1.013,6
12:31 15,0 13,2 14,7 89,0 2,8 253 - 0,4 281 1.013,6
12:30 15,0 13,2 14,7 89,0 2,9 247 - 0,4 346 1.013,6
12:29 15,1 13,2 14,7 89,0 3,0 257 - 0,4 325 1.013,6
12:28 15,1 13,3 14,7 89,1 2,9 245 - 0,4 337 1.013,7
12:27 15,1 13,5 14,9 90,0 2,7 260 - 0,4 340 1.013,6
12:26 15,1 13,5 14,9 90,0 2,8 255 - 0,4 337 1.013,6
12:25 15,1 13,5 14,9 90,0 2,8 259 - 0,4 338 1.013,6
12:24 15,1 13,4 14,9 90,0 2,6 271 - 0,4 316 1.013,7
12:23 15,1 13,4 14,8 90,0 2,4 281 - 0,4 319 1.013,7
12:22 15,0 13,4 14,8 90,0 2,4 269 - 0,4 384 1.013,7
12:21 15,0 13,3 14,7 90,0 2,6 265 - 0,4 445 1.013,7
12:20 15,0 13,3 14,7 90,0 2,8 271 - 0,4 445 1.013,7
12:19 14,9 13,4 14,8 90,5 2,9 271 - 0,4 483 1.013,6
12:18 14,9 13,4 14,8 91,0 3,0 271 - 0,4 452 1.013,6
12:17 14,9 13,4 14,8 91,0 3,1 269 - 0,4 477 1.013,6
12:16 14,8 13,4 14,7 91,0 3,2 264 - 0,4 486 1.013,6
12:15 14,8 13,3 14,7 91,0 3,3 268 - 0,4 441 1.013,6
12:14 14,8 13,3 14,7 91,0 3,3 273 - 0,4 347 1.013,6
12:13 14,8 13,3 14,7 91,0 3,3 246 - 0,4 318 1.013,6
12:12 14,8 13,3 14,6 91,0 3,3 267 - 0,4 298 1.013,6
12:11 14,8 13,3 14,7 91,0 3,4 257 - 0,4 277 1.013,6
12:10 14,8 13,3 14,6 91,0 3,3 255 - 0,4 260 1.013,6
12:09 14,7 13,2 14,6 91,0 3,1 249 - 0,4 255 1.013,6
12:08 14,7 13,2 14,6 91,0 2,9 252 - 0,4 257 1.013,6
12:07 14,7 13,2 14,5 91,0 2,8 236 - 0,4 263 1.013,6
12:06 14,6 13,2 14,5 91,0 2,9 251 - 0,4 294 1.013,6
12:05 14,6 13,1 14,5 91,0 2,9 240 - 0,4 349 1.013,6
12:04 14,6 13,1 14,5 91,0 3,0 257 - 0,4 378 1.013,6
12:03 14,6 13,1 14,5 91,0 3,2 245 - 0,4 352 1.013,6
12:02 14,7 13,2 14,6 91,4 3,5 256 - 0,4 326 1.013,6
12:01 14,7 13,4 14,6 92,0 3,7 244 - 0,4 319 1.013,6
12:00 14,7 13,3 14,6 92,0 3,7 240 - 0,4 324 1.013,6
 
11:59 14,6 13,3 14,6 92,0 3,7 259 - 0,4 332 1.013,6
11:58 14,6 13,3 14,6 92,0 3,9 275 - 0,4 339 1.013,7
11:57 14,6 13,3 14,6 92,0 3,9 259 - 0,4 341 1.013,7
11:56 14,6 13,3 14,6 92,0 4,0 263 - 0,4 339 1.013,6
11:55 14,6 13,3 14,6 92,0 4,1 258 - 0,4 334 1.013,6
11:54 14,6 13,3 14,6 92,0 4,1 256 - 0,4 333 1.013,6
11:53 14,6 13,3 14,6 92,0 4,1 251 - 0,4 350 1.013,6
11:52 14,6 13,3 14,6 92,0 4,0 260 - 0,4 386 1.013,6
11:51 14,6 13,3 14,5 92,0 4,1 271 - 0,4 416 1.013,6
11:50 14,6 13,2 14,5 92,0 4,0 264 - 0,4 425 1.013,6
11:49 14,6 13,2 14,5 92,0 3,9 260 - 0,4 434 1.013,6
11:48 14,5 13,2 14,5 92,0 3,8 266 - 0,4 476 1.013,6
11:47 14,5 13,2 14,5 92,0 3,8 271 - 0,4 348 1.013,6
11:46 14,5 13,2 14,4 92,0 3,7 257 - 0,4 335 1.013,6
11:45 14,4 13,1 14,4 92,0 3,6 246 - 0,4 317 1.013,6
11:44 14,4 13,1 14,4 92,0 3,6 262 - 0,4 308 1.013,6
11:43 14,4 13,1 14,4 92,0 3,8 258 - 0,4 295 1.013,6
11:42 14,4 13,1 14,4 92,0 4,0 255 - 0,4 287 1.013,6
11:41 14,5 13,2 14,4 92,0 3,9 251 - 0,4 286 1.013,6
11:40 14,5 13,2 14,5 92,0 3,3 242 - 0,4 291 1.013,6
11:39 14,5 13,2 14,4 92,0 2,9 190 - 0,4 299 1.013,6
11:38 14,5 13,3 14,1 92,5 2,9 263 - 0,4 289 1.013,6
11:37 14,5 13,2 14,0 92,4 3,4 242 - 0,4 264 1.013,6
11:36 14,5 13,3 14,1 92,8 3,3 261 - 0,4 253 1.013,6
11:35 14,4 13,3 14,1 93,0 3,4 224 - 0,4 251 1.013,6
11:34 14,5 13,3 14,1 93,0 3,6 247 - 0,4 256 1.013,6
11:33 14,5 13,3 14,1 93,0 3,6 251 - 0,4 273 1.013,6
11:32 14,4 13,3 14,1 93,0 3,6 278 - 0,4 294 1.013,6
11:31 14,4 13,3 14,1 93,0 3,7 274 - 0,4 302 1.013,6
11:30 14,5 13,3 14,1 93,0 3,8 260 - 0,4 308 1.013,6
11:29 14,5 13,3 14,1 93,0 3,9 266 - 0,4 322 1.013,6
11:28 14,4 13,3 14,1 93,0 3,8 263 - 0,4 316 1.013,6
11:27 14,4 13,3 14,1 93,0 3,3 263 - 0,4 301 1.013,6
11:26 14,4 13,2 14,0 93,0 2,8 244 - 0,4 314 1.013,6
11:25 14,4 13,2 14,0 93,0 2,3 255 - 0,4 297 1.013,5
11:24 14,4 13,2 14,0 93,0 2,0 253 - 0,4 267 1.013,5
11:23 14,3 13,2 14,0 93,0 1,7 255 - 0,4 236 1.013,6
11:22 14,3 13,2 14,0 93,0 1,6 243 - 0,4 219 1.013,6
11:21 14,3 13,2 13,9 93,0 1,6 242 - 0,4 206 1.013,6
11:20 14,3 13,1 13,9 93,0 1,6 250 - 0,4 202 1.013,6
11:19 14,3 13,1 13,9 93,0 1,8 253 - 0,4 204 1.013,6
11:18 14,3 13,1 13,9 93,0 2,0 234 - 0,4 201 1.013,6
11:17 14,3 13,1 13,9 93,0 2,0 247 - 0,4 189 1.013,5
11:16 14,3 13,1 13,9 93,0 2,1 244 - 0,4 178 1.013,6
11:15 14,3 13,1 13,9 93,0 2,2 240 - 0,4 172 1.013,5
11:14 14,3 13,1 13,9 93,0 2,3 253 - 0,4 171 1.013,5
11:13 14,3 13,1 13,9 93,0 2,3 240 - 0,4 161 1.013,5
11:12 14,3 13,1 13,9 93,0 2,3 234 - 0,4 141 1.013,5
11:11 14,3 13,1 13,9 93,0 2,2 243 - 0,4 143 1.013,5
11:10 14,3 13,1 13,9 93,0 2,3 255 - 0,4 157 1.013,5
11:09 14,3 13,1 13,9 93,0 2,4 236 - 0,4 167 1.013,5
11:08 14,3 13,1 13,9 93,0 2,4 217 - 0,4 167 1.013,5
11:07 14,3 13,1 13,9 93,0 2,5 267 - 0,4 115 1.013,5
11:06 14,3 13,1 13,9 93,0 2,8 254 - 0,4 84 1.013,5
11:05 14,3 13,1 13,9 93,0 2,9 249 - 0,4 95 1.013,4
11:04 14,3 13,1 13,9 93,0 3,1 245 - 0,4 120 1.013,4
11:03 14,3 13,2 13,9 93,5 3,1 261 - 0,4 141 1.013,4
11:02 14,3 13,3 14,0 94,0 3,1 261 - 0,4 188 1.013,4
11:01 14,3 13,3 14,0 94,0 3,0 260 - 0,4 219 1.013,4
11:00 14,3 13,3 14,0 94,0 2,8 259 - 0,4 193 1.013,4
 
10:59 14,3 13,3 14,0 94,0 2,6 257 - 0,4 196 1.013,5
10:58 14,3 13,3 14,0 94,0 2,5 259 - 0,4 223 1.013,4
10:57 14,3 13,3 14,0 94,0 2,3 254 - 0,4 220 1.013,4
10:56 14,3 13,3 14,0 94,0 2,3 240 - 0,4 192 1.013,4
10:55 14,2 13,3 13,9 94,0 2,3 244 - 0,4 166 1.013,4
10:54 14,3 13,3 13,9 94,0 2,3 255 - 0,4 161 1.013,4
10:53 14,3 13,3 14,0 94,0 2,3 244 - 0,4 162 1.013,4
10:52 14,3 13,3 14,0 94,0 2,2 236 - 0,4 163 1.013,4
10:51 14,3 13,3 14,0 94,0 2,0 247 - 0,4 168 1.013,4
10:50 14,3 13,3 13,9 94,0 1,8 244 - 0,4 179 1.013,4
10:49 14,2 13,3 13,9 94,0 1,8 267 - 0,4 191 1.013,4
10:48 14,2 13,3 13,9 94,0 1,8 258 - 0,4 204 1.013,4
10:47 14,2 13,2 13,9 94,0 1,7 236 - 0,4 211 1.013,4
10:46 14,2 13,2 13,9 94,0 1,7 255 - 0,4 213 1.013,3
10:45 14,2 13,2 13,9 94,0 1,5 254 - 0,4 206 1.013,4
10:44 14,2 13,2 13,9 94,0 1,4 242 - 0,4 196 1.013,3
10:43 14,2 13,2 13,8 94,0 1,4 244 - 0,4 189 1.013,3
10:42 14,2 13,2 13,8 94,0 1,4 245 - 0,4 182 1.013,3
10:41 14,2 13,2 13,8 94,0 1,3 245 - 0,4 174 1.013,3
10:40 14,2 13,2 13,8 94,0 1,2 245 - 0,4 164 1.013,3
10:39 14,2 13,2 13,8 94,0 1,2 245 - 0,4 173 1.013,3
10:38 14,2 13,2 13,8 94,0 1,2 245 - 0,4 176 1.013,2
10:37 14,1 13,2 13,8 94,0 1,2 245 - 0,4 175 1.013,3
10:36 14,1 13,2 13,8 94,0 1,2 249 - 0,4 169 1.013,3
10:35 14,1 13,2 13,8 94,0 1,3 249 - 0,4 165 1.013,3
10:34 14,1 13,2 13,8 94,0 1,5 249 - 0,4 172 1.013,2
10:33 14,1 13,1 13,8 94,0 1,6 246 - 0,4 185 1.013,2
10:32 14,1 13,1 13,8 94,0 1,6 253 - 0,4 187 1.013,2
10:31 14,1 13,1 13,8 94,0 1,7 254 - 0,4 193 1.013,1
10:30 14,1 13,2 13,8 94,0 1,7 255 - 0,4 205 1.013,2
10:29 14,1 13,2 13,8 94,0 1,7 251 - 0,4 199 1.013,2
10:28 14,2 13,2 13,8 94,0 1,8 253 - 0,4 148 1.013,2
10:27 14,2 13,2 13,9 94,0 1,9 253 - 0,4 175 1.013,1
10:26 14,2 13,2 13,9 94,0 1,9 253 - 0,4 185 1.013,1
10:25 14,3 13,3 13,9 94,0 1,7 253 - 0,4 185 1.013,1
10:24 14,3 13,3 14,0 94,2 1,5 253 - 0,4 190 1.013,2
10:23 14,3 13,5 14,0 95,0 1,3 244 - 0,4 194 1.013,2
10:22 14,3 13,5 14,0 95,0 1,1 240 - 0,4 193 1.013,2
10:21 14,3 13,5 14,0 95,0 0,7 234 - 0,4 214 1.013,2
10:20 14,3 13,5 14,0 95,0 0,3 141 - 0,4 228 1.013,2
10:19 14,3 13,5 14,0 95,0 0,1 140 - 0,4 220 1.013,1
10:18 14,3 13,5 14,0 95,0 0,2 140 - 0,4 218 1.013,0
10:17 14,3 13,5 14,0 95,0 0,3 140 - 0,4 203 1.013,0
10:16 14,3 13,5 14,0 95,0 0,3 140 - 0,4 158 1.013,1
10:15 14,3 13,4 14,0 95,0 0,2 140 - 0,4 107 1.013,1
10:14 14,3 13,5 14,0 95,0 0,2 140 - 0,4 99 1.013,1
10:13 14,3 13,5 14,0 95,0 0,3 163 - 0,4 84 1.013,1
10:12 14,3 13,5 14,0 95,0 0,5 163 - 0,4 80 1.013,1
10:11 14,3 13,5 14,0 95,0 0,7 163 - 0,4 99 1.013,1
10:10 14,3 13,5 14,0 95,0 0,7 163 - 0,4 121 1.013,1
10:09 14,3 13,5 14,0 95,0 0,6 160 - 0,4 113 1.013,1
10:08 14,3 13,5 14,0 95,0 0,3 159 - 0,4 106 1.013,1
10:07 14,3 13,5 14,0 95,0 0,2 159 - 0,4 115 1.013,1
10:06 14,3 13,5 14,0 95,0 0,2 184 - 0,4 140 1.013,1
10:05 14,3 13,5 14,0 95,0 0,2 186 - 0,4 149 1.013,1
10:04 14,3 13,5 14,0 95,0 0,3 186 - 0,4 138 1.013,1
10:03 14,3 13,5 14,0 95,0 0,4 186 - 0,4 105 1.013,1
10:02 14,3 13,5 14,0 95,0 0,4 186 - 0,4 105 1.013,1
10:01 14,3 13,5 14,0 95,0 0,3 212 - 0,4 101 1.013,1
10:00 14,3 13,5 14,0 95,0 0,3 153 - 0,4 95 1.013,2
 
09:59 14,3 13,5 14,0 95,0 0,3 153 - 0,4 91 1.013,1
09:58 14,3 13,5 14,0 95,0 0,3 231 - 0,4 97 1.013,1
09:57 14,2 13,4 14,0 95,0 0,2 192 - 0,4 111 1.013,1
09:56 14,3 13,4 14,0 95,0 0,1 124 - 0,4 132 1.013,1
09:55 14,2 13,4 14,0 95,0 0,2 115 - 0,4 157 1.013,1
09:54 14,2 13,4 13,9 95,0 0,2 182 - 0,4 185 1.013,0
09:53 14,2 13,4 13,9 95,0 0,2 148 - 0,4 207 1.013,0
09:52 14,2 13,4 13,9 95,0 0,2 143 - 0,4 214 1.013,1
09:51 14,2 13,4 13,9 95,0 0,2 143 - 0,4 211 1.013,1
09:50 14,2 13,4 13,9 95,0 0,1 143 - 0,4 209 1.013,1
09:49 14,2 13,4 13,9 95,0 0,1 74 - 0,4 208 1.013,0
09:48 14,1 13,3 13,9 95,0 0,1 74 - 0,4 199 1.013,0
09:47 14,1 13,3 13,9 95,0 0,1 74 - 0,4 182 1.013,0
09:46 14,1 13,3 13,9 95,0 0,1 74 - 0,4 156 1.012,9
09:45 14,1 13,3 13,9 95,0 0,1 59 - 0,4 93 1.012,9
09:44 14,1 13,3 13,9 95,0 0,1 157 - 0,4 85 1.012,9
09:43 14,1 13,3 13,9 95,0 0,2 157 - 0,4 70 1.012,9
09:42 14,1 13,3 13,8 95,0 0,2 157 - 0,4 67 1.012,9
09:41 14,1 13,3 13,9 95,0 0,1 159 - 0,4 71 1.012,9
09:40 14,1 13,3 13,9 95,0 0,0 159 - 0,4 77 1.012,9
09:39 14,1 13,3 13,8 95,0 0,2 159 - 0,4 84 1.012,9
09:38 14,1 13,3 13,8 95,0 0,3 159 - 0,4 91 1.012,9
09:37 14,1 13,3 13,8 95,0 0,5 167 - 0,4 102 1.012,9
09:36 14,1 13,3 13,8 95,0 0,6 167 - 0,4 121 1.012,8
09:35 14,1 13,3 13,8 95,0 0,7 217 - 0,4 143 1.012,8
09:34 14,1 13,3 13,8 95,0 0,6 195 - 0,4 162 1.012,8
09:33 14,1 13,2 13,8 95,0 0,7 153 - 0,4 166 1.012,8
09:32 14,1 13,2 13,8 95,0 0,8 165 - 0,4 166 1.012,8
09:31 14,0 13,2 13,8 95,0 0,8 199 - 0,4 170 1.012,8
09:30 14,0 13,2 13,7 95,0 0,8 203 - 0,4 171 1.012,8
09:29 14,0 13,2 13,7 95,0 0,6 180 - 0,4 162 1.012,8
09:28 14,0 13,2 13,7 95,0 0,5 207 - 0,4 160 1.012,8
09:27 14,0 13,2 13,7 95,0 0,5 208 - 0,4 159 1.012,8
09:26 14,0 13,2 13,7 95,0 0,5 181 - 0,4 152 1.012,8
09:25 14,0 13,2 13,7 95,0 0,3 181 - 0,4 146 1.012,7
09:24 14,0 13,1 13,7 95,0 0,2 181 - 0,4 147 1.012,7
09:23 13,9 13,1 13,7 95,0 0,2 181 - 0,4 157 1.012,7
09:22 13,9 13,1 13,7 95,0 0,3 176 - 0,4 166 1.012,7
09:21 13,9 13,1 13,6 95,0 0,3 176 - 0,4 170 1.012,7
09:20 13,9 13,1 13,6 95,0 0,2 176 - 0,4 171 1.012,7
09:19 13,9 13,1 13,6 95,0 0,3 81 - 0,4 171 1.012,7
09:18 13,8 13,0 13,6 95,0 0,4 70 - 0,4 171 1.012,7
09:17 13,8 13,0 13,6 95,0 0,3 109 - 0,4 167 1.012,7
09:16 13,8 13,0 13,6 95,0 0,2 238 - 0,4 162 1.012,7
09:15 13,8 13,0 13,6 95,0 0,3 238 - 0,4 160 1.012,7
09:14 13,8 13,0 13,5 95,0 0,4 236 - 0,4 160 1.012,7
09:13 13,8 13,0 13,5 95,0 0,3 236 - 0,4 159 1.012,7
09:12 13,8 13,0 13,5 95,0 0,5 236 - 0,4 156 1.012,7
09:11 13,7 12,9 13,5 95,0 0,6 236 - 0,4 158 1.012,7
09:10 13,7 12,9 13,5 95,0 0,5 176 - 0,4 160 1.012,6
09:09 13,7 12,9 13,4 95,0 0,3 105 - 0,4 159 1.012,6
09:08 13,7 12,9 13,4 95,0 0,1 103 - 0,4 156 1.012,6
09:07 13,7 12,9 13,4 95,0 0,0 103 - 0,4 150 1.012,6
09:06 13,7 12,9 13,4 95,0 0,0 103 - 0,4 141 1.012,6
09:05 13,7 12,9 13,4 95,0 0,0 103 - 0,4 132 1.012,6
09:04 13,7 12,9 13,4 95,0 0,1 103 - 0,4 124 1.012,5
09:03 13,7 12,9 13,4 95,0 0,2 103 - 0,4 120 1.012,5
09:02 13,6 12,8 13,4 95,0 0,2 103 - 0,4 122 1.012,6
09:01 13,6 12,8 13,3 95,0 0,3 195 - 0,4 123 1.012,5
09:00 13,6 12,8 13,3 95,0 0,4 195 - 0,4 121 1.012,5
 
08:59 13,6 12,8 13,3 95,0 0,3 204 - 0,4 121 1.012,5
08:58 13,6 12,8 13,3 95,0 0,3 114 - 0,4 126 1.012,5
08:57 13,6 12,7 13,3 95,0 0,4 103 - 0,4 128 1.012,5
08:56 13,6 12,7 13,3 95,0 0,2 136 - 0,4 131 1.012,5
08:55 13,5 12,7 13,3 95,0 0,1 140 - 0,4 132 1.012,4
08:54 13,5 12,7 13,2 95,0 0,1 140 - 0,4 130 1.012,4
08:53 13,5 12,7 13,2 95,0 0,2 140 - 0,4 128 1.012,4
08:52 13,5 12,7 13,2 95,0 0,2 140 - 0,4 126 1.012,5
08:51 13,5 12,7 13,2 95,0 0,2 140 - 0,4 123 1.012,5
08:50 13,5 12,7 13,2 95,0 0,2 147 - 0,4 120 1.012,4
08:49 13,5 12,7 13,2 95,0 0,2 160 - 0,4 119 1.012,5
08:48 13,5 12,7 13,2 95,0 0,2 160 - 0,4 116 1.012,5
08:47 13,5 12,6 13,2 95,0 0,3 160 - 0,4 116 1.012,4
08:46 13,5 12,7 13,2 95,0 0,3 145 - 0,4 118 1.012,4
08:45 13,4 12,6 13,2 95,0 0,2 141 - 0,4 118 1.012,4
08:44 13,4 12,6 13,2 95,0 0,2 126 - 0,4 118 1.012,4
08:43 13,4 12,6 13,2 95,0 0,4 114 - 0,4 118 1.012,4
08:42 13,4 12,6 13,1 95,0 0,6 130 - 0,4 118 1.012,4
08:41 13,4 12,6 13,1 95,0 0,5 89 - 0,4 118 1.012,4
08:40 13,4 12,6 13,1 95,0 0,2 217 - 0,4 118 1.012,4
08:39 13,4 12,6 13,1 95,0 0,3 47 - 0,4 118 1.012,4
08:38 13,4 12,6 13,1 95,0 0,4 105 - 0,4 118 1.012,4
08:37 13,4 12,6 13,1 95,0 0,4 136 - 0,4 118 1.012,4
08:36 13,3 12,5 13,1 95,0 0,3 133 - 0,4 118 1.012,4
08:35 13,3 12,5 13,1 95,0 0,4 126 - 0,4 116 1.012,4
08:34 13,3 12,5 13,1 95,0 0,5 97 - 0,4 113 1.012,4
08:33 13,3 12,5 13,1 95,0 0,7 90 - 0,4 110 1.012,3
08:32 13,3 12,5 13,0 95,0 0,6 101 - 0,4 109 1.012,4
08:31 13,3 12,5 13,0 95,0 0,5 121 - 0,4 109 1.012,4
08:30 13,3 12,5 13,0 95,0 0,3 80 - 0,4 107 1.012,4
08:29 13,3 12,5 13,0 95,0 0,3 83 - 0,4 105 1.012,4
08:28 13,3 12,5 13,0 95,0 0,4 81 - 0,4 105 1.012,4
08:27 13,3 12,5 13,0 95,0 0,5 74 - 0,4 104 1.012,4
08:26 13,3 12,5 13,0 95,0 0,5 120 - 0,4 101 1.012,3
08:25 13,2 12,4 13,0 95,0 0,5 168 - 0,4 98 1.012,3
08:24 13,2 12,4 13,0 95,0 0,4 112 - 0,4 100 1.012,3
08:23 13,2 12,4 13,0 95,0 0,4 138 - 0,4 97 1.012,3
08:22 13,2 12,4 13,0 95,0 0,4 140 - 0,4 95 1.012,3
08:21 13,2 12,4 13,0 95,0 0,5 185 - 0,4 95 1.012,3
08:20 13,2 12,4 13,0 95,0 0,4 176 - 0,4 95 1.012,3
08:19 13,2 12,4 13,0 95,0 0,4 82 - 0,4 95 1.012,3
08:18 13,2 12,4 12,9 95,0 0,6 75 - 0,4 95 1.012,3
08:17 13,2 12,4 12,9 95,0 0,6 87 - 0,4 91 1.012,3
08:16 13,2 12,4 12,9 95,0 0,5 89 - 0,4 90 1.012,3
08:15 13,2 12,4 12,9 95,0 0,4 111 - 0,4 89 1.012,3
08:14 13,2 12,4 12,9 95,0 0,3 88 - 0,4 87 1.012,3
08:13 13,2 12,4 12,9 95,0 0,3 88 - 0,4 84 1.012,3
08:12 13,2 12,4 12,9 95,0 0,3 64 - 0,4 82 1.012,3
08:11 13,2 12,4 12,9 95,0 0,3 64 - 0,4 78 1.012,3
08:10 13,2 12,4 12,9 95,0 0,3 359 - 0,4 74 1.012,3
08:09 13,2 12,4 12,9 95,0 0,3 41 - 0,4 69 1.012,3
08:08 13,1 12,3 12,9 95,0 0,3 45 - 0,4 66 1.012,3
08:07 13,2 12,4 12,9 95,0 0,4 109 - 0,4 63 1.012,3
08:06 13,2 12,4 12,9 95,0 0,3 35 - 0,4 63 1.012,2
08:05 13,1 12,3 12,9 95,0 0,3 170 - 0,4 62 1.012,2
08:04 13,2 12,4 12,9 95,0 0,4 88 - 0,4 62 1.012,2
08:03 13,2 12,4 12,9 95,0 0,3 73 - 0,4 62 1.012,2
08:02 13,1 12,3 12,9 95,0 0,1 73 - 0,4 62 1.012,2
08:01 13,1 12,3 12,8 95,0 0,1 73 - 0,4 60 1.012,2
08:00 13,1 12,2 12,8 94,3 0,1 73 - 0,4 54 1.012,2
 
07:59 13,1 12,3 12,8 94,8 0,2 73 - 0,4 54 1.012,2
07:58 13,1 12,1 12,8 94,2 0,2 99 - 0,4 55 1.012,2
07:57 13,1 12,3 12,8 95,0 0,2 99 - 0,4 57 1.012,1
07:56 13,1 12,2 12,8 94,6 0,1 99 - 0,4 58 1.012,1
07:55 13,1 12,1 12,7 94,0 0,0 99 - 0,4 56 1.012,1
07:54 13,1 12,2 12,8 94,7 0,0 99 - 0,4 53 1.012,1
07:53 13,1 12,1 12,8 94,2 0,1 99 - 0,4 51 1.012,1
07:52 13,1 12,1 12,7 94,0 0,2 99 - 0,4 51 1.012,1
07:51 13,1 12,1 12,7 94,0 0,2 99 - 0,4 51 1.012,1
07:50 13,1 12,1 12,7 94,0 0,2 101 - 0,4 53 1.012,1
07:49 13,1 12,1 12,7 94,0 0,2 96 - 0,4 53 1.012,0
07:48 13,1 12,1 12,7 94,0 0,1 197 - 0,4 54 1.012,0
07:47 13,1 12,1 12,7 94,0 0,1 197 - 0,4 52 1.012,0
07:46 13,0 12,1 12,7 94,0 0,1 197 - 0,4 49 1.012,0
07:45 13,0 12,1 12,7 94,0 0,2 209 - 0,4 50 1.012,0
07:44 13,1 12,1 12,7 94,0 0,1 209 - 0,4 49 1.012,0
07:43 13,0 12,0 12,7 94,0 0,2 78 - 0,4 49 1.012,0
07:42 13,0 12,0 12,7 94,0 0,3 104 - 0,4 50 1.012,0
07:41 13,0 12,1 12,7 94,0 0,3 104 - 0,4 51 1.012,0
07:40 13,0 12,1 12,7 94,0 0,4 104 - 0,4 51 1.012,0
07:39 13,0 12,0 12,7 94,0 0,4 103 - 0,4 52 1.012,0
07:38 13,0 12,0 12,7 94,0 0,6 75 - 0,4 53 1.012,0
07:37 13,0 12,0 12,7 94,0 0,6 94 - 0,4 52 1.012,0
07:36 13,0 12,1 12,7 94,0 0,3 107 - 0,4 47 1.012,0
07:35 13,0 12,1 12,7 94,0 0,2 314 - 0,4 47 1.011,9
07:34 13,0 12,1 12,7 94,0 0,4 159 - 0,4 44 1.011,9
07:33 13,0 12,1 12,7 94,0 0,6 101 - 0,4 42 1.011,9
07:32 13,0 12,1 12,7 94,0 0,3 57 - 0,4 40 1.012,0
07:31 13,0 12,1 12,7 94,0 0,1 267 - 0,4 40 1.012,0
07:30 13,1 12,1 12,7 94,0 0,1 97 - 0,4 40 1.011,9
07:29 13,0 12,1 12,7 94,0 0,4 327 - 0,4 39 1.011,9
07:28 13,0 12,1 12,7 94,0 0,7 20 - 0,4 39 1.012,0
07:27 13,0 12,1 12,7 94,0 0,7 345 - 0,4 36 1.012,0
07:26 13,0 12,1 12,7 94,0 0,6 345 - 0,4 35 1.012,0
07:25 13,0 12,1 12,7 94,0 0,3 31 - 0,4 36 1.012,0
07:24 13,0 12,1 12,7 94,0 0,6 117 - 0,4 39 1.012,0
07:23 13,0 12,1 12,7 94,0 1,0 116 - 0,4 39 1.011,9
07:22 13,1 12,1 12,7 94,0 1,2 127 - 0,4 39 1.011,9
07:21 13,0 12,1 12,7 94,0 1,1 70 - 0,4 38 1.011,9
07:20 13,0 12,1 12,7 94,0 1,0 95 - 0,4 35 1.011,9
07:19 13,1 12,1 12,7 94,0 0,9 105 - 0,4 35 1.011,9
07:18 13,1 12,1 12,7 94,0 0,9 141 - 0,4 32 1.011,9
07:17 13,1 12,1 12,7 94,0 0,6 79 - 0,4 30 1.011,9
07:16 13,0 12,1 12,7 94,0 0,5 64 - 0,4 29 1.011,9
07:15 13,1 12,1 12,7 94,0 0,6 140 - 0,4 27 1.011,9
07:14 13,1 12,1 12,7 94,0 0,6 146 - 0,4 26 1.011,9
07:13 13,1 12,1 12,7 94,0 0,6 64 - 0,4 26 1.011,9
07:12 13,1 12,1 12,7 94,0 0,5 59 - 0,4 26 1.011,9
07:11 13,1 12,1 12,7 94,0 0,3 135 - 0,4 27 1.011,9
07:10 13,1 12,1 12,7 94,0 0,3 78 - 0,4 28 1.011,9
07:09 13,1 12,1 12,7 94,0 0,4 91 - 0,4 30 1.011,9
07:08 13,1 12,1 12,7 94,0 0,4 87 - 0,4 30 1.011,9
07:07 13,1 12,1 12,7 94,0 0,4 119 - 0,4 30 1.011,9
07:06 13,1 12,1 12,7 94,0 0,3 133 - 0,4 30 1.011,8
07:05 13,1 12,1 12,7 94,0 0,2 141 - 0,4 30 1.011,8
07:04 13,1 12,1 12,7 94,0 0,0 74 - 0,4 30 1.011,8
07:03 13,1 12,1 12,7 94,0 0,1 239 - 0,4 28 1.011,8
07:02 13,1 12,1 12,7 94,0 0,1 238 - 0,4 25 1.011,8
07:01 13,1 12,1 12,7 94,0 0,2 255 - 0,4 20 1.011,9
07:00 13,1 12,1 12,7 94,0 0,3 255 - 0,4 17 1.011,9
 
06:59 13,0 12,1 12,7 94,0 0,4 255 - 0,4 15 1.011,9
06:58 13,0 12,1 12,7 94,0 0,2 222 - 0,4 14 1.011,9
06:57 13,0 12,1 12,7 94,0 0,1 98 - 0,4 14 1.011,9
06:56 13,1 12,1 12,7 94,0 0,0 263 - 0,4 14 1.011,9
06:55 13,0 12,1 12,7 94,0 0,0 263 - 0,4 16 1.011,9
06:54 13,0 12,1 12,7 94,0 0,0 263 - 0,4 16 1.011,9
06:53 13,0 12,0 12,7 94,0 0,0 263 - 0,4 16 1.011,9
06:52 13,0 12,0 12,7 94,0 0,0 263 - 0,4 15 1.011,9
06:51 13,0 12,1 12,7 94,0 0,0 263 - 0,4 12 1.011,9
06:50 13,0 12,0 12,7 94,0 0,0 263 - 0,4 12 1.011,8
06:49 13,0 12,0 12,7 94,0 0,0 263 - 0,4 12 1.011,8
06:48 13,0 12,1 12,7 94,0 0,0 263 - 0,4 10 1.011,9
06:47 13,0 12,0 12,7 94,0 0,0 263 - 0,4 9 1.011,9
06:46 13,0 12,0 12,7 94,0 0,0 263 - 0,4 9 1.011,9
06:45 13,0 12,0 12,7 94,0 0,0 263 - 0,4 11 1.011,9
06:44 13,0 12,0 12,7 94,0 0,0 263 - 0,4 11 1.011,9
06:43 13,0 12,0 12,7 94,0 0,0 263 - 0,4 11 1.011,9
06:42 13,0 12,0 12,7 94,0 0,1 263 - 0,4 11 1.011,9
06:41 13,0 12,0 12,7 94,0 0,2 263 - 0,4 10 1.011,9
06:40 13,0 12,0 12,7 94,0 0,3 263 - 0,4 8 1.011,9
06:39 13,0 12,0 12,7 94,0 0,5 263 - 0,4 7 1.011,9
06:38 13,0 12,0 12,7 94,0 0,6 263 - 0,4 7 1.011,9
06:37 13,0 12,0 12,7 94,0 0,6 263 - 0,4 7 1.011,9
06:36 13,0 12,0 12,7 94,0 0,6 263 - 0,4 8 1.011,9
06:35 13,0 12,0 12,7 94,0 0,8 263 - 0,4 9 1.011,9
06:34 13,0 12,0 12,7 94,0 1,0 263 - 0,4 9 1.011,9
06:33 13,0 12,0 12,7 94,0 1,1 263 - 0,4 9 1.011,9
06:32 13,0 12,0 12,7 94,0 1,1 263 - 0,4 9 1.011,9
06:31 13,0 12,0 12,7 94,0 1,2 263 - 0,4 9 1.011,9
06:30 13,0 12,0 12,7 94,0 1,3 263 - 0,4 9 1.011,9
06:29 13,0 12,0 12,7 94,0 1,5 263 - 0,4 8 1.011,8
06:28 13,0 12,0 12,7 94,0 1,6 263 - 0,4 7 1.011,8
06:27 13,0 12,1 12,7 94,0 1,6 268 - 0,4 7 1.011,8
06:26 13,0 12,1 12,7 94,0 1,5 269 - 0,4 7 1.011,8
06:25 13,0 12,1 12,7 94,0 1,4 269 - 0,4 7 1.011,8
06:24 13,0 12,1 12,7 94,0 1,4 288 - 0,4 7 1.011,8
06:23 13,0 12,1 12,7 94,0 1,6 288 - 0,4 7 1.011,8
06:22 13,0 12,1 12,7 94,0 1,9 280 - 0,4 5 1.011,8
06:21 13,0 12,1 12,7 94,0 2,3 284 - 0,4 5 1.011,8
06:20 13,0 12,1 12,7 94,0 2,5 278 - 0,4 5 1.011,9
06:19 13,0 12,0 12,7 94,0 2,3 284 - 0,4 5 1.011,9
06:18 13,0 12,0 12,7 94,0 2,1 272 - 0,4 5 1.011,9
06:17 13,0 12,0 12,7 94,0 2,0 255 - 0,4 5 1.011,8
06:16 13,0 12,0 12,7 94,0 2,1 247 - 0,4 5 1.011,8
06:15 13,0 12,0 12,7 94,0 2,3 244 - 0,4 5 1.011,8
06:14 13,0 12,0 12,7 94,0 2,2 256 - 0,4 4 1.011,9
06:13 13,0 12,0 12,7 94,0 2,0 244 - 0,4 0 1.011,9
06:12 13,0 12,0 12,7 94,0 1,9 253 - 0,4 0 1.011,8
06:11 13,0 12,0 12,7 94,0 1,8 249 - 0,4 0 1.011,8
06:10 13,0 12,0 12,7 94,0 1,9 247 - 0,4 0 1.011,8
06:09 13,0 12,0 12,7 94,0 1,8 259 - 0,4 0 1.011,8
06:08 13,0 12,0 12,6 94,0 1,8 259 - 0,4 0 1.011,8
06:07 12,9 12,0 12,6 94,0 1,8 253 - 0,4 0 1.011,8
06:06 13,0 12,0 12,6 94,0 1,9 253 - 0,4 0 1.011,8
06:05 13,0 12,0 12,7 94,0 2,1 255 - 0,4 0 1.011,8
06:04 13,0 12,0 12,7 94,0 2,3 244 - 0,4 0 1.011,7
06:03 13,0 12,0 12,7 94,0 2,4 254 - 0,4 0 1.011,7
06:02 13,0 12,0 12,7 94,0 2,3 244 - 0,4 0 1.011,7
06:01 13,0 12,0 12,7 94,0 2,1 253 - 0,4 0 1.011,7
06:00 13,0 12,1 12,7 94,0 2,0 258 - 0,4 0 1.011,7
 
05:59 13,0 12,0 12,7 94,0 2,0 243 - 0,4 0 1.011,7
05:58 13,0 12,1 12,7 94,0 2,2 257 - 0,4 0 1.011,7
05:57 13,0 12,1 12,7 94,0 2,5 244 - 0,4 0 1.011,7
05:56 13,1 12,1 12,7 94,0 2,8 267 - 0,4 0 1.011,7
05:55 13,1 12,1 12,7 94,0 2,9 257 - 0,4 0 1.011,7
05:54 13,0 12,1 12,7 94,0 2,8 271 - 0,4 0 1.011,8
05:53 13,0 12,1 12,7 94,0 2,9 261 - 0,4 0 1.011,7
05:52 13,0 12,1 12,7 94,0 3,3 257 - 0,4 0 1.011,7
05:51 13,0 12,1 12,7 94,0 3,6 251 - 0,4 0 1.011,7
05:50 13,0 12,1 12,7 94,0 3,7 261 - 0,4 0 1.011,7
05:49 13,1 12,1 12,7 94,0 3,7 268 - 0,4 0 1.011,7
05:48 13,1 12,2 12,8 94,3 3,3 264 - 0,4 0 1.011,7
05:47 13,1 12,3 12,8 95,0 2,3 257 - 0,4 0 1.011,7
05:46 13,1 12,3 12,9 95,0 1,9 190 - 0,4 0 1.011,7
05:45 13,2 12,4 12,9 95,0 2,0 248 - 0,4 0 1.011,7
05:44 13,2 12,4 12,9 95,0 2,5 244 - 0,4 0 1.011,7
05:43 13,2 12,4 12,9 95,0 2,7 253 - 0,4 0 1.011,7
05:42 13,2 12,4 12,9 95,0 2,4 253 - 0,4 0 1.011,7
05:41 13,2 12,4 12,9 95,0 2,2 242 - 0,4 0 1.011,7
05:40 13,2 12,4 12,9 95,0 2,3 242 - 0,4 0 1.011,7
05:39 13,2 12,4 12,9 95,0 2,4 269 - 0,4 0 1.011,8
05:38 13,2 12,4 12,9 95,0 2,4 263 - 0,4 0 1.011,7
05:37 13,2 12,4 12,9 95,0 2,2 251 - 0,4 0 1.011,7
05:36 13,2 12,4 12,9 95,0 2,2 247 - 0,4 0 1.011,7
05:35 13,2 12,4 12,9 95,0 2,0 252 - 0,4 0 1.011,7
05:34 13,2 12,4 12,9 95,0 1,9 262 - 0,4 0 1.011,7
05:33 13,2 12,4 12,9 95,0 1,8 255 - 0,4 0 1.011,7
05:32 13,2 12,4 12,9 95,0 1,6 255 - 0,4 0 1.011,7
05:31 13,2 12,4 12,9 95,0 1,6 251 - 0,4 0 1.011,6
05:30 13,1 12,3 12,9 95,0 1,7 255 - 0,4 0 1.011,6
05:29 13,1 12,2 12,8 94,5 1,9 247 - 0,4 0 1.011,7
05:28 13,1 12,2 12,8 94,0 1,8 249 - 0,4 0 1.011,7
05:27 13,1 12,2 12,8 94,0 1,5 282 - 0,4 0 1.011,7
05:26 13,1 12,1 12,8 94,0 1,4 250 - 0,4 0 1.011,7
05:25 13,1 12,1 12,8 94,0 1,4 242 - 0,4 0 1.011,7
05:24 13,1 12,2 12,8 94,0 1,3 225 - 0,4 0 1.011,7
05:23 13,2 12,2 12,8 94,0 1,1 230 - 0,4 0 1.011,7
05:22 13,2 12,2 12,8 94,0 1,0 187 - 0,4 0 1.011,8
05:21 13,2 12,2 12,8 94,0 0,8 187 - 0,4 0 1.011,7
05:20 13,2 12,2 12,8 94,0 0,6 186 - 0,4 0 1.011,7
05:19 13,2 12,2 12,8 94,0 0,5 186 - 0,4 0 1.011,8
05:18 13,2 12,2 12,8 94,0 0,6 186 - 0,4 0 1.011,8
05:17 13,2 12,2 12,8 94,0 0,6 186 - 0,4 0 1.011,8
05:16 13,2 12,2 12,8 94,0 0,6 186 - 0,4 0 1.011,8
05:15 13,2 12,2 12,8 94,0 0,5 186 - 0,4 0 1.011,7
05:14 13,2 12,2 12,8 94,0 0,3 185 - 0,4 0 1.011,8
05:13 13,2 12,2 12,8 94,0 0,3 186 - 0,4 0 1.011,7
05:12 13,2 12,2 12,8 94,0 0,3 185 - 0,4 0 1.011,7
05:11 13,2 12,2 12,8 94,0 0,2 198 - 0,4 0 1.011,7
05:10 13,2 12,2 12,8 94,0 0,1 157 - 0,4 0 1.011,7
05:09 13,2 12,2 12,8 94,0 0,2 156 - 0,4 0 1.011,7
05:08 13,2 12,2 12,8 94,0 0,2 157 - 0,4 0 1.011,7
05:07 13,2 12,2 12,8 94,0 0,2 157 - 0,4 0 1.011,7
05:06 13,2 12,2 12,8 94,0 0,2 157 - 0,4 0 1.011,6
05:05 13,2 12,2 12,8 94,0 0,2 156 - 0,4 0 1.011,7
05:04 13,2 12,2 12,8 94,0 0,2 155 - 0,4 0 1.011,7
05:03 13,2 12,2 12,8 94,0 0,2 155 - 0,4 0 1.011,7
05:02 13,2 12,2 12,8 94,0 0,2 172 - 0,4 0 1.011,7
05:01 13,2 12,2 12,8 94,0 0,2 180 - 0,4 0 1.011,6
05:00 13,2 12,2 12,8 94,0 0,3 180 - 0,4 0 1.011,7
 
04:59 13,1 12,2 12,8 94,0 0,3 180 - 0,4 0 1.011,7
04:58 13,2 12,2 12,8 94,0 0,6 180 - 0,4 0 1.011,6
04:57 13,1 12,2 12,8 94,0 0,8 180 - 0,4 0 1.011,7
04:56 13,2 12,2 12,8 94,0 0,9 205 - 0,4 0 1.011,7
04:55 13,2 12,2 12,8 94,0 1,0 208 - 0,4 0 1.011,6
04:54 13,2 12,2 12,8 94,0 1,2 212 - 0,4 0 1.011,6
04:53 13,2 12,2 12,8 94,0 1,3 222 - 0,4 0 1.011,6
04:52 13,2 12,2 12,8 94,0 1,4 221 - 0,4 0 1.011,7
04:51 13,2 12,2 12,8 94,0 1,5 229 - 0,4 0 1.011,6
04:50 13,2 12,2 12,8 94,0 1,6 233 - 0,4 0 1.011,7
04:49 13,2 12,2 12,9 94,0 1,7 210 - 0,4 0 1.011,6
04:48 13,2 12,2 12,9 94,0 2,0 217 - 0,4 0 1.011,7
04:47 13,2 12,2 12,9 94,0 2,0 207 - 0,4 0 1.011,7
04:46 13,2 12,2 12,9 94,0 1,9 213 - 0,4 0 1.011,7
04:45 13,2 12,3 12,9 94,0 1,6 219 - 0,4 0 1.011,7
04:44 13,2 12,3 12,9 94,0 1,7 221 - 0,4 0 1.011,6
04:43 13,2 12,3 12,9 94,0 1,7 224 - 0,4 0 1.011,7
04:42 13,3 12,3 12,9 94,0 1,6 201 - 0,4 0 1.011,6
04:41 13,3 12,3 12,9 94,0 1,5 237 - 0,4 0 1.011,7
04:40 13,3 12,3 12,9 94,0 1,8 222 - 0,4 0 1.011,7
04:39 13,3 12,3 13,0 94,0 1,9 220 - 0,4 0 1.011,6
04:38 13,3 12,3 13,0 94,0 1,9 217 - 0,4 0 1.011,7
04:37 13,3 12,3 13,0 94,0 1,9 209 - 0,4 0 1.011,7
04:36 13,3 12,4 13,0 94,0 1,9 203 - 0,4 0 1.011,6
04:35 13,3 12,4 13,0 94,0 2,0 211 - 0,4 0 1.011,6
04:34 13,4 12,4 13,0 94,0 2,1 215 - 0,4 0 1.011,6
04:33 13,4 12,4 13,0 94,0 2,4 235 - 0,4 0 1.011,6
04:32 13,4 12,4 13,1 94,0 2,5 238 - 0,4 0 1.011,6
04:31 13,4 12,4 13,1 94,0 2,1 230 - 0,4 0 1.011,6
04:30 13,4 12,4 13,1 94,0 1,8 237 - 0,4 0 1.011,6
04:29 13,4 12,4 13,1 94,0 1,9 257 - 0,4 0 1.011,6
04:28 13,4 12,4 13,1 94,0 2,2 251 - 0,4 0 1.011,6
04:27 13,4 12,4 13,1 94,0 2,4 257 - 0,4 0 1.011,6
04:26 13,3 12,4 13,0 94,0 2,5 257 - 0,4 0 1.011,6
04:25 13,4 12,4 13,0 94,0 2,4 242 - 0,4 0 1.011,6
04:24 13,4 12,4 13,0 94,0 2,1 221 - 0,4 0 1.011,6
04:23 13,4 12,4 13,1 94,0 1,8 235 - 0,4 0 1.011,6
04:22 13,4 12,4 13,1 94,0 1,7 238 - 0,4 0 1.011,6
04:21 13,4 12,4 13,1 94,0 1,7 238 - 0,4 0 1.011,6
04:20 13,4 12,4 13,1 94,0 1,6 213 - 0,4 0 1.011,6
04:19 13,4 12,4 13,1 94,0 1,5 226 - 0,4 0 1.011,6
04:18 13,4 12,4 13,1 94,0 1,6 234 - 0,4 0 1.011,6
04:17 13,4 12,5 13,1 94,0 1,7 222 - 0,4 0 1.011,6
04:16 13,4 12,5 13,1 94,0 1,7 225 - 0,4 0 1.011,6
04:15 13,4 12,5 13,1 94,0 1,7 224 - 0,4 0 1.011,6
04:14 13,4 12,5 13,1 94,0 1,8 219 - 0,4 0 1.011,6
04:13 13,4 12,4 13,1 94,0 1,8 204 - 0,4 0 1.011,6
04:12 13,4 12,5 13,1 94,0 1,8 225 - 0,4 0 1.011,6
04:11 13,4 12,5 13,1 94,0 1,8 222 - 0,4 0 1.011,6
04:10 13,4 12,5 13,1 94,0 1,8 226 - 0,4 0 1.011,6
04:09 13,4 12,5 13,1 94,0 1,8 220 - 0,4 0 1.011,6
04:08 13,4 12,5 13,1 94,0 1,6 222 - 0,4 0 1.011,6
04:07 13,5 12,5 13,2 94,0 1,6 224 - 0,4 0 1.011,6
04:06 13,5 12,5 13,1 94,0 1,7 214 - 0,4 0 1.011,6
04:05 13,5 12,5 13,2 94,0 1,7 207 - 0,4 0 1.011,6
04:04 13,5 12,5 13,2 94,0 1,6 207 - 0,4 0 1.011,6
04:03 13,5 12,5 13,2 94,0 1,5 204 - 0,4 0 1.011,6
04:02 13,5 12,5 13,2 94,0 1,4 197 - 0,4 0 1.011,6
04:01 13,6 12,6 13,2 94,0 1,2 189 - 0,4 0 1.011,6
04:00 13,6 12,6 13,2 94,0 1,0 195 - 0,4 0 1.011,6
 
03:59 13,6 12,6 13,2 94,0 1,0 195 - 0,4 0 1.011,7
03:58 13,6 12,6 13,2 94,0 1,2 195 - 0,4 0 1.011,6
03:57 13,6 12,6 13,2 94,0 1,3 216 - 0,4 0 1.011,6
03:56 13,6 12,6 13,2 94,0 1,3 202 - 0,4 0 1.011,6
03:55 13,6 12,6 13,3 94,0 1,2 217 - 0,4 0 1.011,6
03:54 13,6 12,6 13,3 94,0 1,2 217 - 0,4 0 1.011,6
03:53 13,6 12,6 13,3 94,0 1,3 233 - 0,4 0 1.011,6
03:52 13,6 12,6 13,3 94,0 1,4 224 - 0,4 0 1.011,6
03:51 13,6 12,6 13,3 94,0 1,5 230 - 0,4 0 1.011,6
03:50 13,6 12,6 13,3 94,0 1,4 228 - 0,4 0 1.011,6
03:49 13,6 12,6 13,3 94,0 1,4 227 - 0,4 0 1.011,6
03:48 13,6 12,6 13,3 94,0 1,5 233 - 0,4 0 1.011,6
03:47 13,6 12,7 13,3 94,0 1,7 217 - 0,4 0 1.011,6
03:46 13,6 12,6 13,3 94,0 1,8 233 - 0,4 0 1.011,6
03:45 13,6 12,6 13,3 94,0 1,8 240 - 0,4 0 1.011,6
03:44 13,6 12,7 13,3 94,0 2,1 250 - 0,4 0 1.011,6
03:43 13,7 12,7 13,3 94,0 2,3 242 - 0,4 0 1.011,6
03:42 13,7 12,7 13,3 94,0 2,4 251 - 0,4 0 1.011,6
03:41 13,7 12,7 13,3 94,0 2,4 232 - 0,4 0 1.011,6
03:40 13,7 12,7 13,3 94,0 2,6 224 - 0,4 0 1.011,6
03:39 13,7 12,7 13,3 94,0 2,9 243 - 0,4 0 1.011,6
03:38 13,7 12,7 13,3 94,0 3,3 244 - 0,4 0 1.011,6
03:37 13,7 12,7 13,4 94,0 3,3 247 - 0,4 0 1.011,6
03:36 13,7 12,7 13,4 94,0 3,1 231 - 0,4 0 1.011,6
03:35 13,7 12,8 13,4 94,0 2,8 244 - 0,4 0 1.011,5
03:34 13,7 12,8 13,4 94,0 2,6 249 - 0,4 0 1.011,5
03:33 13,7 12,8 13,4 94,0 2,5 219 - 0,4 0 1.011,5
03:32 13,7 12,8 13,4 94,0 2,6 232 - 0,4 0 1.011,5
03:31 13,7 12,8 13,4 94,0 2,8 238 - 0,4 0 1.011,5
03:30 13,7 12,8 13,4 94,0 3,1 251 - 0,4 0 1.011,5
03:29 13,7 12,7 13,4 94,0 3,2 273 - 0,4 0 1.011,5
03:28 13,7 12,8 13,4 94,0 2,9 238 - 0,4 0 1.011,5
03:27 13,7 12,8 13,4 94,0 2,6 244 - 0,4 0 1.011,5
03:26 13,7 12,8 13,4 94,0 2,4 228 - 0,4 0 1.011,5
03:25 13,7 12,8 13,4 94,0 2,3 240 - 0,4 0 1.011,5
03:24 13,8 12,8 13,4 94,0 2,2 220 - 0,4 0 1.011,6
03:23 13,8 12,8 13,5 94,0 2,3 243 - 0,4 0 1.011,6
03:22 13,8 12,8 13,5 94,0 2,6 250 - 0,4 0 1.011,6
03:21 13,8 12,8 13,5 94,0 2,7 220 - 0,4 0 1.011,6
03:20 13,8 12,8 13,5 94,0 2,6 232 - 0,4 0 1.011,6
03:19 13,8 12,8 13,5 94,0 2,5 239 - 0,4 0 1.011,6
03:18 13,8 12,8 13,5 94,0 2,5 238 - 0,4 0 1.011,6
03:17 13,8 12,8 13,5 94,0 2,6 219 - 0,4 0 1.011,6
03:16 13,8 12,8 13,5 94,0 2,5 217 - 0,4 0 1.011,6
03:15 13,8 12,8 13,5 94,0 2,4 217 - 0,4 0 1.011,6
03:14 13,8 12,8 13,5 94,0 2,3 238 - 0,4 0 1.011,6
03:13 13,8 12,8 13,5 94,0 2,2 236 - 0,4 0 1.011,6
03:12 13,8 12,8 13,5 94,0 2,0 245 - 0,4 0 1.011,6
03:11 13,8 12,8 13,5 94,0 2,1 238 - 0,4 0 1.011,6
03:10 13,8 12,8 13,5 94,0 2,0 238 - 0,4 0 1.011,6
03:09 13,8 12,8 13,4 94,0 1,9 222 - 0,4 0 1.011,6
03:08 13,8 12,8 13,4 94,0 1,7 208 - 0,4 0 1.011,6
03:07 13,8 12,8 13,5 94,0 1,6 223 - 0,4 0 1.011,6
03:06 13,8 12,8 13,4 94,0 1,6 227 - 0,4 0 1.011,6
03:05 13,8 12,8 13,4 94,0 1,7 217 - 0,4 0 1.011,5
03:04 13,8 12,8 13,5 94,0 1,9 229 - 0,4 0 1.011,6
03:03 13,8 12,8 13,5 94,0 1,9 242 - 0,4 0 1.011,6
03:02 13,8 12,8 13,5 94,0 1,8 230 - 0,4 0 1.011,6
03:01 13,8 12,8 13,5 94,0 1,8 206 - 0,4 0 1.011,6
03:00 13,8 12,8 13,5 94,0 1,9 223 - 0,4 0 1.011,5
 
02:59 13,8 12,8 13,5 94,0 1,8 213 - 0,4 0 1.011,5
02:58 13,8 12,8 13,5 94,0 1,6 211 - 0,4 0 1.011,5
02:57 13,8 12,8 13,5 94,0 1,5 215 - 0,4 0 1.011,5
02:56 13,8 12,8 13,5 94,0 1,6 214 - 0,4 0 1.011,5
02:55 13,8 12,9 13,5 94,0 1,9 217 - 0,4 0 1.011,5
02:54 13,8 12,8 13,5 94,0 2,0 205 - 0,4 0 1.011,5
02:53 13,8 12,9 13,5 94,0 1,8 209 - 0,4 0 1.011,6
02:52 13,8 12,9 13,5 94,0 1,6 205 - 0,4 0 1.011,6
02:51 13,8 12,9 13,5 94,0 1,5 176 - 0,4 0 1.011,5
02:50 13,8 12,8 13,5 94,0 1,7 207 - 0,4 0 1.011,5
02:49 13,8 12,9 13,5 94,0 2,1 225 - 0,4 0 1.011,5
02:48 13,8 12,9 13,5 94,0 2,3 228 - 0,4 0 1.011,4
02:47 13,8 12,9 13,5 94,0 2,2 251 - 0,4 0 1.011,5
02:46 13,8 12,9 13,5 94,0 2,1 213 - 0,4 0 1.011,5
02:45 13,8 12,9 13,5 94,0 2,3 226 - 0,4 0 1.011,5
02:44 13,8 12,9 13,5 94,0 2,3 234 - 0,4 0 1.011,5
02:43 13,8 12,9 13,5 94,0 2,3 224 - 0,4 0 1.011,5
02:42 13,9 12,9 13,5 94,0 2,3 226 - 0,4 0 1.011,5
02:41 13,9 12,9 13,6 94,0 2,2 235 - 0,4 0 1.011,5
02:40 13,9 12,9 13,6 94,0 1,9 230 - 0,4 0 1.011,4
02:39 13,9 12,9 13,6 94,0 1,7 236 - 0,4 0 1.011,4
02:38 13,9 12,9 13,6 94,0 1,9 225 - 0,4 0 1.011,4
02:37 13,9 12,9 13,6 94,0 2,1 237 - 0,4 0 1.011,5
02:36 13,9 12,9 13,6 94,0 2,4 213 - 0,4 0 1.011,5
02:35 13,9 12,9 13,6 94,0 2,8 245 - 0,4 0 1.011,5
02:34 13,9 12,9 13,5 94,0 3,2 233 - 0,4 0 1.011,5
02:33 13,9 12,9 13,5 94,0 3,4 251 - 0,4 0 1.011,6
02:32 13,9 12,9 13,5 94,0 3,6 244 - 0,4 0 1.011,5
02:31 13,9 12,9 13,5 94,0 3,8 233 - 0,4 0 1.011,5
02:30 13,8 12,9 13,5 94,0 3,9 262 - 0,4 0 1.011,6
02:29 13,8 12,9 13,5 94,0 4,0 237 - 0,4 0 1.011,5
02:28 13,9 12,9 13,5 94,0 4,1 239 - 0,4 0 1.011,5
02:27 13,8 12,9 13,5 94,0 4,0 244 - 0,4 0 1.011,6
02:26 13,8 12,9 13,5 94,0 3,7 242 - 0,4 0 1.011,6
02:25 13,8 12,9 13,5 94,0 3,3 231 - 0,4 0 1.011,5
02:24 13,9 12,9 13,5 94,0 2,8 249 - 0,4 0 1.011,6
02:23 13,9 12,9 13,5 94,0 2,7 232 - 0,4 0 1.011,6
02:22 13,9 12,9 13,6 94,0 2,6 240 - 0,4 0 1.011,6
02:21 13,9 12,9 13,6 94,0 2,5 232 - 0,4 0 1.011,6
02:20 13,9 13,0 13,6 94,0 2,3 221 - 0,4 0 1.011,5
02:19 13,9 13,0 13,6 94,0 2,0 219 - 0,4 0 1.011,5
02:18 13,9 13,0 13,6 94,0 1,7 219 - 0,4 0 1.011,5
02:17 13,9 13,0 13,6 94,0 1,6 236 - 0,4 0 1.011,5
02:16 14,0 13,0 13,6 94,0 1,6 239 - 0,4 0 1.011,5
02:15 13,9 13,0 13,6 94,0 1,7 227 - 0,4 0 1.011,5
02:14 14,0 13,0 13,6 94,0 1,8 223 - 0,4 0 1.011,5
02:13 14,0 13,0 13,7 94,0 2,0 223 - 0,4 0 1.011,5
02:12 14,0 13,0 13,7 94,0 2,1 224 - 0,4 0 1.011,5
02:11 14,0 13,0 13,7 94,0 2,0 226 - 0,4 0 1.011,6
02:10 14,0 13,1 13,7 94,0 1,9 240 - 0,4 0 1.011,6
02:09 14,0 13,1 13,7 94,0 1,9 217 - 0,4 0 1.011,6
02:08 14,0 13,0 13,7 94,0 1,8 240 - 0,4 0 1.011,6
02:07 14,1 13,1 13,7 94,0 1,9 219 - 0,4 0 1.011,6
02:06 14,1 13,1 13,7 94,0 1,9 226 - 0,4 0 1.011,6
02:05 14,1 13,1 13,7 94,0 1,8 226 - 0,4 0 1.011,6
02:04 14,1 13,1 13,8 94,0 1,7 231 - 0,4 0 1.011,6
02:03 14,1 13,1 13,8 94,0 1,8 232 - 0,4 0 1.011,6
02:02 14,1 13,1 13,8 94,0 2,1 226 - 0,4 0 1.011,6
02:01 14,1 13,1 13,8 94,0 2,4 226 - 0,4 0 1.011,6
02:00 14,1 13,1 13,8 94,0 2,5 248 - 0,4 0 1.011,6
 
01:59 14,1 13,1 13,8 94,0 2,5 214 - 0,4 0 1.011,6
01:58 14,1 13,1 13,8 94,0 2,7 234 - 0,4 0 1.011,6
01:57 14,1 13,1 13,8 94,0 3,0 247 - 0,4 0 1.011,6
01:56 14,1 13,1 13,8 94,0 3,2 211 - 0,4 0 1.011,6
01:55 14,1 13,1 13,8 94,0 3,2 221 - 0,4 0 1.011,6
01:54 14,1 13,1 13,8 94,0 3,2 255 - 0,4 0 1.011,6
01:53 14,1 13,1 13,8 94,0 3,4 247 - 0,4 0 1.011,6
01:52 14,1 13,1 13,8 94,0 3,5 236 - 0,4 0 1.011,6
01:51 14,1 13,1 13,8 94,0 3,7 259 - 0,4 0 1.011,6
01:50 14,1 13,1 13,8 94,0 3,8 247 - 0,4 0 1.011,6
01:49 14,1 13,1 13,8 94,0 3,8 236 - 0,4 0 1.011,6
01:48 14,1 13,1 13,8 94,0 3,5 243 - 0,4 0 1.011,7
01:47 14,1 13,1 13,8 94,0 3,6 260 - 0,4 0 1.011,6
01:46 14,1 13,2 13,8 94,0 3,7 244 - 0,4 0 1.011,6
01:45 14,1 13,1 13,8 94,0 4,0 217 - 0,4 0 1.011,6
01:44 14,1 13,1 13,8 94,0 4,1 247 - 0,4 0 1.011,5
01:43 14,1 13,1 13,8 94,0 4,3 230 - 0,4 0 1.011,5
01:42 14,1 13,1 13,8 94,0 4,3 238 - 0,4 0 1.011,5
01:41 14,1 13,1 13,8 94,0 4,3 233 - 0,4 0 1.011,5
01:40 14,1 13,1 13,8 94,0 4,3 238 - 0,4 0 1.011,5
01:39 14,1 13,1 13,8 94,0 4,2 256 - 0,4 0 1.011,5
01:38 14,1 13,1 13,8 94,0 4,3 246 - 0,4 0 1.011,5
01:37 14,2 13,2 13,8 94,0 4,5 232 - 0,4 0 1.011,5
01:36 14,2 13,2 13,8 93,7 4,7 237 - 0,4 0 1.011,5
01:35 14,2 13,1 13,8 93,5 4,6 242 - 0,4 0 1.011,5
01:34 14,2 13,1 13,8 93,4 4,0 247 - 0,4 0 1.011,5
01:33 14,2 13,1 13,8 93,0 3,5 257 - 0,4 0 1.011,5
01:32 14,2 13,1 13,8 93,0 3,4 257 - 0,4 0 1.011,5
01:31 14,2 13,1 13,8 93,0 3,4 242 - 0,4 0 1.011,5
01:30 14,2 13,1 13,9 93,0 3,4 242 - 0,4 0 1.011,5
01:29 14,2 13,1 13,8 93,0 3,3 239 - 0,4 0 1.011,5
01:28 14,2 13,1 13,9 93,0 3,2 247 - 0,4 0 1.011,5
01:27 14,2 13,1 13,9 93,0 3,1 242 - 0,4 0 1.011,5
01:26 14,2 13,1 13,8 93,0 3,0 251 - 0,4 0 1.011,5
01:25 14,2 13,1 13,9 93,0 2,9 247 - 0,4 0 1.011,5
01:24 14,3 13,1 13,9 93,0 2,9 238 - 0,4 0 1.011,5
01:23 14,3 13,1 13,9 93,0 3,0 242 - 0,4 0 1.011,6
01:22 14,3 13,1 13,9 93,0 1,9 222 - 0,4 0 1.011,5
01:21 14,3 13,1 13,9 93,0 1,9 236 - 0,4 0 1.011,5
01:20 14,2 13,1 13,9 93,0 1,5 201 - 0,4 0 1.011,5
01:19 14,2 13,1 13,9 93,0 1,6 203 - 0,4 0 1.011,5
01:18 14,2 13,1 13,8 93,0 1,5 180 - 0,4 0 1.011,5
01:17 14,2 13,1 13,8 93,0 1,5 199 - 0,4 0 1.011,5
01:16 14,2 13,1 13,8 93,0 1,4 208 - 0,4 0 1.011,4
01:15 14,2 13,1 13,8 93,0 1,3 207 - 0,4 0 1.011,4
01:14 14,2 13,1 13,8 93,0 1,3 207 - 0,4 0 1.011,4
01:13 14,2 13,1 13,8 93,0 1,4 211 - 0,4 0 1.011,5
01:12 14,2 13,0 13,8 93,0 1,6 211 - 0,4 0 1.011,5
01:11 14,2 13,0 13,8 93,0 1,6 225 - 0,4 0 1.011,5
01:10 14,2 13,0 13,8 93,0 1,6 210 - 0,4 0 1.011,4